Darstellungsparameter: Aktuell verwendete Einstellungen:
Skalierung der Graphiken ... ?
xyx+y,   Skalierungsfaktor:      Skalierung: Modus: x, Faktor: 1
Darstellungszeitraum ... ?
Vom - - bis: - -   Zeitraum: 16.11.2020 - 22.11.2020
Min/Max/Avg-Anzeige ... ?
Zeige MMA aktuell
Zeige MMA Monat
Zeige MMA alles
Zeige --A aktuell
Zeige --A Monat
Zeige --A alles
Keine MMA-Anzeige
MMA:
Keine MMA-Graphiken
MMA-Basis: 16.11.2020 - 22.11.2020
Quicknavigation für Darstellung... ?
Tage:      1T, 2T, 3T, 5T -1T -2T -3T -5T +1T +2T +3T +5T
Wochen: 1W, 2W, 3W -1W -2W -3W +1W +2W +3W
Monate: 1M, 3M, 6M -1M -3M -6M +1M +3M +6M
Jahre:    1J, 3J, 5J, 10J -1J -3J -5J -10J +1J +3J +5J +10J
Nutze für die Darstellung ... ?
Originaldaten oder Mittelwerte auf ...
Stundenbasis Tagesbasis Wochenbasis
Monatsbasis Jahresbasis      Datenbasis: Original-Daten
Darstellen als:
Statistik (Auto) Statistik J:M      Darstellung:
Zur Graphik,    zurück zur Übersicht aller Sensoren.
 
Tabellarische Datenbersicht: ?
 
Sensor: Nr:Datum:Temp:Feuchte:Taupunkt:
Aussen-T/F 1 16-11-2020 00:00:00 11.1 C 89 % 9.36 C
2 16-11-2020 00:05:00 10.9 C 89 % 9.16 C
3 16-11-2020 00:10:00 10.8 C 89 % 9.06 C
4 16-11-2020 00:15:00 10.7 C 89 % 8.96 C
5 16-11-2020 00:20:00 10.7 C 89 % 8.96 C
6 16-11-2020 00:25:00 10.6 C 90 % 9.03 C
7 16-11-2020 00:30:00 10.7 C 90 % 9.13 C
8 16-11-2020 00:35:00 10.7 C 90 % 9.13 C
9 16-11-2020 00:40:00 10.7 C 90 % 9.13 C
10 16-11-2020 00:45:00 10.7 C 89 % 8.96 C
11 16-11-2020 00:50:00 10.7 C 88 % 8.8 C
12 16-11-2020 00:55:00 10.8 C 86 % 8.56 C
13 16-11-2020 01:00:00 10.9 C 86 % 8.65 C
14 16-11-2020 01:05:00 10.9 C 85 % 8.48 C
15 16-11-2020 01:10:00 11 C 84 % 8.4 C
16 16-11-2020 01:15:00 11.1 C 83 % 8.33 C
17 16-11-2020 01:20:00 11.1 C 83 % 8.33 C
18 16-11-2020 01:25:00 11 C 82 % 8.05 C
19 16-11-2020 01:30:00 10.8 C 84 % 8.21 C
20 16-11-2020 01:35:00 10.7 C 83 % 7.93 C
21 16-11-2020 01:40:00 10.6 C 84 % 8.01 C
22 16-11-2020 01:45:00 10.5 C 84 % 7.91 C
23 16-11-2020 01:50:00 10.4 C 85 % 7.99 C
24 16-11-2020 01:55:00 10.4 C 85 % 7.99 C
25 16-11-2020 02:00:00 10.3 C 84 % 7.72 C
Sensor: Nr:Datum:Temp:Feuchte:Taupunkt:
Aussen-T/F 26 16-11-2020 02:05:00 10.3 C 85 % 7.89 C
27 16-11-2020 02:10:00 10.3 C 83 % 7.54 C
28 16-11-2020 02:15:00 10.4 C 83 % 7.64 C
29 16-11-2020 02:20:00 10.6 C 83 % 7.84 C
30 16-11-2020 02:25:00 10.6 C 83 % 7.84 C
31 16-11-2020 02:30:00 10.7 C 83 % 7.93 C
32 16-11-2020 02:35:00 10.7 C 84 % 8.11 C
33 16-11-2020 02:40:00 10.6 C 84 % 8.01 C
34 16-11-2020 02:45:00 10.6 C 84 % 8.01 C
35 16-11-2020 02:50:00 10.6 C 83 % 7.84 C
36 16-11-2020 02:55:00 10.7 C 83 % 7.93 C
37 16-11-2020 03:00:00 10.7 C 83 % 7.93 C
38 16-11-2020 03:05:00 10.7 C 83 % 7.93 C
39 16-11-2020 03:10:00 10.7 C 83 % 7.93 C
40 16-11-2020 03:15:00 10.7 C 82 % 7.76 C
41 16-11-2020 03:20:00 10.8 C 83 % 8.03 C
42 16-11-2020 03:25:00 10.8 C 83 % 8.03 C
43 16-11-2020 03:30:00 10.7 C 82 % 7.76 C
44 16-11-2020 03:35:00 10.8 C 82 % 7.85 C
45 16-11-2020 03:40:00 10.9 C 81 % 7.77 C
46 16-11-2020 03:45:00 11 C 82 % 8.05 C
47 16-11-2020 03:50:00 11 C 81 % 7.87 C
48 16-11-2020 03:55:00 11 C 81 % 7.87 C
49 16-11-2020 04:00:00 11.1 C 81 % 7.97 C
50 16-11-2020 04:05:00 11 C 81 % 7.87 C
Sensor: Nr:Datum:Temp:Feuchte:Taupunkt:
Aussen-T/F 51 16-11-2020 04:10:00 11 C 81 % 7.87 C
52 16-11-2020 04:15:00 11 C 81 % 7.87 C
53 16-11-2020 04:20:00 11.1 C 81 % 7.97 C
54 16-11-2020 04:25:00 11.1 C 81 % 7.97 C
55 16-11-2020 04:30:00 11.1 C 82 % 8.15 C
56 16-11-2020 04:35:00 10.9 C 84 % 8.31 C
57 16-11-2020 04:40:00 10.7 C 85 % 8.28 C
58 16-11-2020 04:45:00 10.5 C 86 % 8.26 C
59 16-11-2020 04:50:00 10.4 C 87 % 8.33 C
60 16-11-2020 04:55:00 10.3 C 87 % 8.23 C
61 16-11-2020 05:00:00 10.2 C 88 % 8.3 C
62 16-11-2020 05:05:00 10.2 C 87 % 8.14 C
63 16-11-2020 05:10:00 10.2 C 87 % 8.14 C
64 16-11-2020 05:15:00 10.1 C 87 % 8.04 C
65 16-11-2020 05:20:00 10.2 C 87 % 8.14 C
66 16-11-2020 05:25:00 10.1 C 87 % 8.04 C
67 16-11-2020 05:30:00 10.1 C 86 % 7.87 C
68 16-11-2020 05:35:00 10.1 C 86 % 7.87 C
69 16-11-2020 05:40:00 10.1 C 86 % 7.87 C
70 16-11-2020 05:45:00 10.1 C 86 % 7.87 C
71 16-11-2020 05:50:00 10.1 C 86 % 7.87 C
72 16-11-2020 05:55:00 10 C 85 % 7.6 C
73 16-11-2020 06:00:00 10 C 86 % 7.77 C
74 16-11-2020 06:05:00 10 C 86 % 7.77 C
75 16-11-2020 06:10:00 9.9 C 86 % 7.67 C
Sensor: Nr:Datum:Temp:Feuchte:Taupunkt:
Aussen-T/F 76 16-11-2020 06:15:00 9.9 C 86 % 7.67 C
77 16-11-2020 06:20:00 9.9 C 86 % 7.67 C
78 16-11-2020 06:25:00 10 C 86 % 7.77 C
79 16-11-2020 06:30:00 10.1 C 85 % 7.7 C
80 16-11-2020 06:35:00 10.1 C 86 % 7.87 C
81 16-11-2020 06:40:00 10.1 C 86 % 7.87 C
82 16-11-2020 06:45:00 10.1 C 86 % 7.87 C
83 16-11-2020 06:50:00 10.1 C 86 % 7.87 C
84 16-11-2020 06:55:00 10.1 C 86 % 7.87 C
85 16-11-2020 07:00:00 10.1 C 86 % 7.87 C
86 16-11-2020 07:05:00 10.1 C 86 % 7.87 C
87 16-11-2020 07:10:00 10.1 C 86 % 7.87 C
88 16-11-2020 07:15:00 9.9 C 86 % 7.67 C
89 16-11-2020 07:20:00 9.9 C 86 % 7.67 C
90 16-11-2020 07:25:00 9.8 C 86 % 7.57 C
91 16-11-2020 07:30:00 9.7 C 87 % 7.64 C
92 16-11-2020 07:35:00 9.6 C 87 % 7.55 C
93 16-11-2020 07:40:00 9.6 C 88 % 7.71 C
94 16-11-2020 07:45:00 9.6 C 88 % 7.71 C
95 16-11-2020 07:50:00 9.5 C 88 % 7.61 C
96 16-11-2020 07:55:00 9.6 C 89 % 7.88 C
97 16-11-2020 08:00:00 9.7 C 89 % 7.98 C
98 16-11-2020 08:05:00 9.8 C 88 % 7.91 C
99 16-11-2020 08:10:00 9.8 C 88 % 7.91 C
100 16-11-2020 08:15:00 9.9 C 88 % 8.01 C
Sensor: Nr:Datum:Temp:Feuchte:Taupunkt:
Aussen-T/F 101 16-11-2020 08:20:00 10 C 88 % 8.11 C
102 16-11-2020 08:25:00 10.1 C 88 % 8.21 C
103 16-11-2020 08:30:00 10.3 C 88 % 8.4 C
104 16-11-2020 08:35:00 10.3 C 88 % 8.4 C
105 16-11-2020 08:40:00 10.4 C 87 % 8.33 C
106 16-11-2020 08:45:00 10.5 C 87 % 8.43 C
107 16-11-2020 08:50:00 10.5 C 87 % 8.43 C
108 16-11-2020 08:55:00 10.6 C 87 % 8.53 C
109 16-11-2020 09:00:00 10.7 C 86 % 8.46 C
110 16-11-2020 09:05:00 10.7 C 86 % 8.46 C
111 16-11-2020 09:10:00 10.7 C 86 % 8.46 C
112 16-11-2020 09:15:00 10.6 C 86 % 8.36 C
113 16-11-2020 09:20:00 10.6 C 86 % 8.36 C
114 16-11-2020 09:25:00 10.6 C 86 % 8.36 C
115 16-11-2020 09:30:00 10.5 C 86 % 8.26 C
116 16-11-2020 09:35:00 10.5 C 86 % 8.26 C
117 16-11-2020 09:40:00 10.6 C 87 % 8.53 C
118 16-11-2020 09:45:00 10.6 C 86 % 8.36 C
119 16-11-2020 09:50:00 10.6 C 86 % 8.36 C
120 16-11-2020 09:55:00 10.6 C 86 % 8.36 C
121 16-11-2020 10:00:00 10.5 C 86 % 8.26 C
122 16-11-2020 10:05:00 10.5 C 86 % 8.26 C
123 16-11-2020 10:10:00 10.5 C 85 % 8.09 C
124 16-11-2020 10:15:00 10.6 C 85 % 8.19 C
125 16-11-2020 10:20:00 10.7 C 85 % 8.28 C
Sensor: Nr:Datum:Temp:Feuchte:Taupunkt:
Aussen-T/F 126 16-11-2020 10:25:00 10.7 C 85 % 8.28 C
127 16-11-2020 10:30:00 10.8 C 85 % 8.38 C
128 16-11-2020 10:35:00 10.8 C 85 % 8.38 C
129 16-11-2020 10:40:00 10.9 C 84 % 8.31 C
130 16-11-2020 10:45:00 10.9 C 84 % 8.31 C
131 16-11-2020 10:50:00 11.2 C 83 % 8.42 C
132 16-11-2020 10:55:00 11.3 C 83 % 8.52 C
133 16-11-2020 11:00:00 11.5 C 83 % 8.72 C
134 16-11-2020 11:05:00 11.6 C 83 % 8.81 C
135 16-11-2020 11:10:00 11.6 C 82 % 8.64 C
136 16-11-2020 11:15:00 11.7 C 83 % 8.91 C
137 16-11-2020 11:20:00 11.8 C 82 % 8.83 C
138 16-11-2020 11:25:00 11.8 C 82 % 8.83 C
139 16-11-2020 11:30:00 11.9 C 82 % 8.93 C
140 16-11-2020 11:35:00 11.9 C 82 % 8.93 C
141 16-11-2020 11:40:00 11.9 C 81 % 8.75 C
142 16-11-2020 11:45:00 11.9 C 81 % 8.75 C
143 16-11-2020 11:50:00 11.9 C 81 % 8.75 C
144 16-11-2020 11:55:00 11.9 C 82 % 8.93 C
145 16-11-2020 12:00:00 12.1 C 82 % 9.12 C
146 16-11-2020 12:05:00 12.1 C 82 % 9.12 C
147 16-11-2020 12:10:00 12.2 C 82 % 9.22 C
148 16-11-2020 12:15:00 12.1 C 83 % 9.3 C
149 16-11-2020 12:20:00 12 C 84 % 9.38 C
150 16-11-2020 12:25:00 12.1 C 85 % 9.66 C
Sensor: Nr:Datum:Temp:Feuchte:Taupunkt:
Aussen-T/F 151 16-11-2020 12:30:00 12.1 C 84 % 9.48 C
152 16-11-2020 12:35:00 12.3 C 84 % 9.68 C
153 16-11-2020 12:40:00 12.4 C 84 % 9.78 C
154 16-11-2020 12:45:00 12.5 C 83 % 9.69 C
155 16-11-2020 12:50:00 12.5 C 83 % 9.69 C
156 16-11-2020 12:55:00 12.6 C 83 % 9.79 C
157 16-11-2020 13:00:00 12.7 C 83 % 9.89 C
158 16-11-2020 13:05:00 12.7 C 83 % 9.89 C
159 16-11-2020 13:10:00 12.7 C 84 % 10.07 C
160 16-11-2020 13:15:00 12.7 C 83 % 9.89 C
161 16-11-2020 13:20:00 12.6 C 84 % 9.97 C
162 16-11-2020 13:25:00 12.5 C 85 % 10.05 C
163 16-11-2020 13:30:00 12.4 C 84 % 9.78 C
164 16-11-2020 13:35:00 12.4 C 85 % 9.95 C
165 16-11-2020 13:40:00 12.4 C 85 % 9.95 C
166 16-11-2020 13:45:00 12.4 C 85 % 9.95 C
167 16-11-2020 13:50:00 12.4 C 85 % 9.95 C
168 16-11-2020 13:55:00 12.4 C 85 % 9.95 C
169 16-11-2020 14:00:00 12.4 C 85 % 9.95 C
170 16-11-2020 14:05:00 12.4 C 84 % 9.78 C
171 16-11-2020 14:10:00 12.4 C 84 % 9.78 C
172 16-11-2020 14:15:00 12.4 C 84 % 9.78 C
173 16-11-2020 14:20:00 12.4 C 85 % 9.95 C
174 16-11-2020 14:25:00 12.4 C 85 % 9.95 C
175 16-11-2020 14:30:00 12.4 C 84 % 9.78 C
Sensor: Nr:Datum:Temp:Feuchte:Taupunkt:
Aussen-T/F 176 16-11-2020 14:35:00 12.4 C 84 % 9.78 C
177 16-11-2020 14:40:00 12.4 C 84 % 9.78 C
178 16-11-2020 14:45:00 12.4 C 84 % 9.78 C
179 16-11-2020 14:50:00 12.4 C 84 % 9.78 C
180 16-11-2020 14:55:00 12.4 C 85 % 9.95 C
181 16-11-2020 15:00:00 12.4 C 85 % 9.95 C
182 16-11-2020 15:05:00 12.4 C 84 % 9.78 C
183 16-11-2020 15:10:00 12.4 C 85 % 9.95 C
184 16-11-2020 15:15:00 12.4 C 85 % 9.95 C
185 16-11-2020 15:20:00 12.4 C 85 % 9.95 C
186 16-11-2020 15:25:00 12.4 C 84 % 9.78 C
187 16-11-2020 15:30:00 12.3 C 84 % 9.68 C
188 16-11-2020 15:35:00 12.3 C 85 % 9.85 C
189 16-11-2020 15:40:00 12.2 C 85 % 9.76 C
190 16-11-2020 15:45:00 12.2 C 85 % 9.76 C
191 16-11-2020 15:50:00 12.2 C 85 % 9.76 C
192 16-11-2020 15:55:00 12.1 C 85 % 9.66 C
193 16-11-2020 16:00:00 12 C 85 % 9.56 C
194 16-11-2020 16:05:00 11.9 C 85 % 9.46 C
195 16-11-2020 16:10:00 11.8 C 86 % 9.54 C
196 16-11-2020 16:15:00 11.7 C 86 % 9.44 C
197 16-11-2020 16:20:00 11.7 C 86 % 9.44 C
198 16-11-2020 16:25:00 11.6 C 87 % 9.51 C
199 16-11-2020 16:30:00 11.6 C 87 % 9.51 C
200 16-11-2020 16:35:00 11.6 C 87 % 9.51 C
Sensor: Nr:Datum:Temp:Feuchte:Taupunkt:
Aussen-T/F 201 16-11-2020 16:40:00 11.5 C 87 % 9.41 C
202 16-11-2020 16:45:00 11.5 C 87 % 9.41 C
203 16-11-2020 16:50:00 11.4 C 87 % 9.32 C
204 16-11-2020 16:55:00 11.3 C 87 % 9.22 C
205 16-11-2020 17:00:00 11.3 C 88 % 9.39 C
206 16-11-2020 17:05:00 11.3 C 88 % 9.39 C
207 16-11-2020 17:10:00 11.2 C 88 % 9.29 C
208 16-11-2020 17:15:00 11.2 C 88 % 9.29 C
209 16-11-2020 17:20:00 11.3 C 88 % 9.39 C
210 16-11-2020 17:25:00 11.2 C 88 % 9.29 C
211 16-11-2020 17:30:00 11.2 C 88 % 9.29 C
212 16-11-2020 17:35:00 11.1 C 88 % 9.19 C
213 16-11-2020 17:40:00 11 C 88 % 9.09 C
214 16-11-2020 17:45:00 10.9 C 88 % 8.99 C
215 16-11-2020 17:50:00 10.8 C 89 % 9.06 C
216 16-11-2020 17:55:00 10.7 C 89 % 8.96 C
217 16-11-2020 18:00:00 10.7 C 89 % 8.96 C
218 16-11-2020 18:05:00 10.7 C 90 % 9.13 C
219 16-11-2020 18:10:00 10.8 C 90 % 9.23 C
220 16-11-2020 18:15:00 10.8 C 89 % 9.06 C
221 16-11-2020 18:20:00 10.8 C 89 % 9.06 C
222 16-11-2020 18:25:00 10.9 C 89 % 9.16 C
223 16-11-2020 18:30:00 11 C 89 % 9.26 C
224 16-11-2020 18:35:00 11.1 C 88 % 9.19 C
225 16-11-2020 18:40:00 11.1 C 88 % 9.19 C
Sensor: Nr:Datum:Temp:Feuchte:Taupunkt:
Aussen-T/F 226 16-11-2020 18:45:00 11 C 88 % 9.09 C
227 16-11-2020 18:50:00 11 C 88 % 9.09 C
228 16-11-2020 18:55:00 11 C 88 % 9.09 C
229 16-11-2020 19:00:00 10.9 C 88 % 8.99 C
230 16-11-2020 19:05:00 11 C 88 % 9.09 C
231 16-11-2020 19:10:00 11.1 C 88 % 9.19 C
232 16-11-2020 19:15:00 11.2 C 88 % 9.29 C
233 16-11-2020 19:20:00 11.2 C 88 % 9.29 C
234 16-11-2020 19:25:00 11.2 C 87 % 9.12 C
235 16-11-2020 19:30:00 11.2 C 87 % 9.12 C
236 16-11-2020 19:35:00 11.2 C 87 % 9.12 C
237 16-11-2020 19:40:00 11.2 C 87 % 9.12 C
238 16-11-2020 19:45:00 11.2 C 87 % 9.12 C
239 16-11-2020 19:50:00 11.2 C 87 % 9.12 C
240 16-11-2020 19:55:00 11.2 C 87 % 9.12 C
241 16-11-2020 20:00:00 11.2 C 87 % 9.12 C
242 16-11-2020 20:05:00 11.2 C 87 % 9.12 C
243 16-11-2020 20:10:00 11.1 C 88 % 9.19 C
244 16-11-2020 20:15:00 11 C 88 % 9.09 C
245 16-11-2020 20:20:00 10.9 C 88 % 8.99 C
246 16-11-2020 20:25:00 10.8 C 88 % 8.89 C
247 16-11-2020 20:30:00 10.7 C 88 % 8.8 C
248 16-11-2020 20:35:00 10.7 C 89 % 8.96 C
249 16-11-2020 20:40:00 10.6 C 88 % 8.7 C
250 16-11-2020 20:45:00 10.5 C 88 % 8.6 C
Sensor: Nr:Datum:Temp:Feuchte:Taupunkt:
Aussen-T/F 251 16-11-2020 20:50:00 10.4 C 88 % 8.5 C
252 16-11-2020 20:55:00 10.3 C 88 % 8.4 C
253 16-11-2020 21:00:00 10.2 C 88 % 8.3 C
254 16-11-2020 21:05:00 10.1 C 88 % 8.21 C
255 16-11-2020 21:10:00 10 C 88 % 8.11 C
256 16-11-2020 21:15:00 9.9 C 88 % 8.01 C
257 16-11-2020 21:20:00 9.7 C 88 % 7.81 C
258 16-11-2020 21:25:00 9.6 C 89 % 7.88 C
259 16-11-2020 21:30:00 9.5 C 89 % 7.78 C
260 16-11-2020 21:35:00 9.4 C 89 % 7.68 C
261 16-11-2020 21:40:00 9.3 C 90 % 7.75 C
262 16-11-2020 21:45:00 9.2 C 90 % 7.65 C
263 16-11-2020 21:50:00 9.2 C 90 % 7.65 C
264 16-11-2020 21:55:00 9.2 C 90 % 7.65 C
265 16-11-2020 22:00:00 9.1 C 90 % 7.55 C
266 16-11-2020 22:05:00 9.1 C 90 % 7.55 C
267 16-11-2020 22:10:00 8.9 C 90 % 7.35 C
268 16-11-2020 22:15:00 8.8 C 90 % 7.25 C
269 16-11-2020 22:20:00 8.7 C 90 % 7.15 C
270 16-11-2020 22:25:00 8.6 C 90 % 7.06 C
271 16-11-2020 22:30:00 8.7 C 91 % 7.32 C
272 16-11-2020 22:35:00 8.7 C 91 % 7.32 C
273 16-11-2020 22:40:00 8.7 C 91 % 7.32 C
274 16-11-2020 22:45:00 8.7 C 92 % 7.47 C
275 16-11-2020 22:50:00 8.7 C 91 % 7.32 C
Sensor: Nr:Datum:Temp:Feuchte:Taupunkt:
Aussen-T/F 276 16-11-2020 22:55:00 8.8 C 91 % 7.41 C
277 16-11-2020 23:00:00 8.8 C 91 % 7.41 C
278 16-11-2020 23:05:00 9 C 91 % 7.61 C
279 16-11-2020 23:10:00 9.2 C 91 % 7.81 C
280 16-11-2020 23:15:00 9.2 C 90 % 7.65 C
281 16-11-2020 23:20:00 9.2 C 90 % 7.65 C
282 16-11-2020 23:25:00 9.1 C 90 % 7.55 C
283 16-11-2020 23:30:00 9.2 C 90 % 7.65 C
284 16-11-2020 23:35:00 9.2 C 90 % 7.65 C
285 16-11-2020 23:40:00 9.1 C 90 % 7.55 C
286 16-11-2020 23:45:00 9.2 C 91 % 7.81 C
287 16-11-2020 23:50:00 9.2 C 91 % 7.81 C
288 16-11-2020 23:55:00 9.3 C 90 % 7.75 C
289 17-11-2020 00:00:00 9.3 C 90 % 7.75 C
290 17-11-2020 00:05:00 9.4 C 90 % 7.85 C
291 17-11-2020 00:10:00 9.4 C 90 % 7.85 C
292 17-11-2020 00:15:00 9.4 C 90 % 7.85 C
293 17-11-2020 00:20:00 9.3 C 90 % 7.75 C
294 17-11-2020 00:25:00 9.2 C 90 % 7.65 C
295 17-11-2020 00:30:00 9.2 C 90 % 7.65 C
296 17-11-2020 00:35:00 9.3 C 90 % 7.75 C
297 17-11-2020 00:40:00 9.3 C 90 % 7.75 C
298 17-11-2020 00:45:00 9.4 C 90 % 7.85 C
299 17-11-2020 00:50:00 9.6 C 89 % 7.88 C
300 17-11-2020 00:55:00 9.7 C 89 % 7.98 C
Sensor: Nr:Datum:Temp:Feuchte:Taupunkt:
Aussen-T/F 301 17-11-2020 01:00:00 9.8 C 89 % 8.08 C
302 17-11-2020 01:05:00 9.8 C 89 % 8.08 C
303 17-11-2020 01:10:00 10 C 88 % 8.11 C
304 17-11-2020 01:15:00 10 C 88 % 8.11 C
305 17-11-2020 01:20:00 10.1 C 88 % 8.21 C
306 17-11-2020 01:25:00 10 C 88 % 8.11 C
307 17-11-2020 01:30:00 10 C 88 % 8.11 C
308 17-11-2020 01:35:00 10 C 88 % 8.11 C
309 17-11-2020 01:40:00 10.1 C 88 % 8.21 C
310 17-11-2020 01:45:00 10.1 C 87 % 8.04 C
311 17-11-2020 01:50:00 10.2 C 87 % 8.14 C
312 17-11-2020 01:55:00 10.2 C 87 % 8.14 C
313 17-11-2020 02:00:00 10.2 C 87 % 8.14 C
314 17-11-2020 02:05:00 10.3 C 87 % 8.23 C
315 17-11-2020 02:10:00 10.3 C 87 % 8.23 C
316 17-11-2020 02:15:00 10.4 C 87 % 8.33 C
317 17-11-2020 02:20:00 10.4 C 87 % 8.33 C
318 17-11-2020 02:25:00 10.4 C 87 % 8.33 C
319 17-11-2020 02:30:00 10.5 C 87 % 8.43 C
320 17-11-2020 02:35:00 10.6 C 87 % 8.53 C
321 17-11-2020 02:40:00 10.6 C 87 % 8.53 C
322 17-11-2020 02:45:00 10.6 C 87 % 8.53 C
323 17-11-2020 02:50:00 10.5 C 87 % 8.43 C
324 17-11-2020 02:55:00 10.5 C 87 % 8.43 C
325 17-11-2020 03:00:00 10.5 C 87 % 8.43 C
Sensor: Nr:Datum:Temp:Feuchte:Taupunkt:
Aussen-T/F 326 17-11-2020 03:05:00 10.6 C 87 % 8.53 C
327 17-11-2020 03:10:00 10.6 C 86 % 8.36 C
328 17-11-2020 03:15:00 10.6 C 86 % 8.36 C
329 17-11-2020 03:20:00 10.6 C 86 % 8.36 C
330 17-11-2020 03:25:00 10.6 C 86 % 8.36 C
331 17-11-2020 03:30:00 10.5 C 86 % 8.26 C
332 17-11-2020 03:35:00 10.6 C 87 % 8.53 C
333 17-11-2020 03:40:00 10.6 C 86 % 8.36 C
334 17-11-2020 03:45:00 10.6 C 87 % 8.53 C
335 17-11-2020 03:50:00 10.6 C 86 % 8.36 C
336 17-11-2020 03:55:00 10.7 C 86 % 8.46 C
337 17-11-2020 04:00:00 10.7 C 86 % 8.46 C
338 17-11-2020 04:05:00 10.7 C 86 % 8.46 C
339 17-11-2020 04:10:00 10.6 C 86 % 8.36 C
340 17-11-2020 04:15:00 10.6 C 87 % 8.53 C
341 17-11-2020 04:20:00 10.6 C 87 % 8.53 C
342 17-11-2020 04:25:00 10.6 C 87 % 8.53 C
343 17-11-2020 04:30:00 10.7 C 87 % 8.63 C
344 17-11-2020 04:35:00 10.7 C 86 % 8.46 C
345 17-11-2020 04:40:00 10.7 C 86 % 8.46 C
346 17-11-2020 04:45:00 10.7 C 86 % 8.46 C
347 17-11-2020 04:50:00 10.8 C 86 % 8.56 C
348 17-11-2020 04:55:00 10.8 C 86 % 8.56 C
349 17-11-2020 05:00:00 10.8 C 86 % 8.56 C
350 17-11-2020 05:05:00 10.8 C 86 % 8.56 C
Sensor: Nr:Datum:Temp:Feuchte:Taupunkt:
Aussen-T/F 351 17-11-2020 05:10:00 10.7 C 86 % 8.46 C
352 17-11-2020 05:15:00 10.7 C 86 % 8.46 C
353 17-11-2020 05:20:00 10.8 C 86 % 8.56 C
354 17-11-2020 05:25:00 10.8 C 86 % 8.56 C
355 17-11-2020 05:30:00 10.8 C 86 % 8.56 C
356 17-11-2020 05:35:00 10.8 C 86 % 8.56 C
357 17-11-2020 05:40:00 10.8 C 86 % 8.56 C
358 17-11-2020 05:45:00 10.7 C 87 % 8.63 C
359 17-11-2020 05:50:00 10.6 C 88 % 8.7 C
360 17-11-2020 05:55:00 10.5 C 88 % 8.6 C
361 17-11-2020 06:00:00 10.4 C 89 % 8.67 C
362 17-11-2020 06:05:00 10.3 C 89 % 8.57 C
363 17-11-2020 06:10:00 10.3 C 89 % 8.57 C
364 17-11-2020 06:15:00 10.3 C 89 % 8.57 C
365 17-11-2020 06:20:00 10.4 C 88 % 8.5 C
366 17-11-2020 06:25:00 10.4 C 88 % 8.5 C
367 17-11-2020 06:30:00 10.4 C 88 % 8.5 C
368 17-11-2020 06:35:00 10.5 C 87 % 8.43 C
369 17-11-2020 06:40:00 10.6 C 87 % 8.53 C
370 17-11-2020 06:45:00 10.6 C 87 % 8.53 C
371 17-11-2020 06:50:00 10.6 C 86 % 8.36 C
372 17-11-2020 06:55:00 10.6 C 87 % 8.53 C
373 17-11-2020 07:00:00 10.6 C 86 % 8.36 C
374 17-11-2020 07:05:00 10.6 C 86 % 8.36 C
375 17-11-2020 07:10:00 10.6 C 86 % 8.36 C
Sensor: Nr:Datum:Temp:Feuchte:Taupunkt:
Aussen-T/F 376 17-11-2020 07:15:00 10.6 C 86 % 8.36 C
377 17-11-2020 07:20:00 10.6 C 86 % 8.36 C
378 17-11-2020 07:25:00 10.6 C 86 % 8.36 C
379 17-11-2020 07:30:00 10.6 C 86 % 8.36 C
380 17-11-2020 07:35:00 10.6 C 86 % 8.36 C
381 17-11-2020 07:40:00 10.6 C 86 % 8.36 C
382 17-11-2020 07:45:00 10.6 C 86 % 8.36 C
383 17-11-2020 07:50:00 10.6 C 86 % 8.36 C
384 17-11-2020 07:55:00 10.7 C 86 % 8.46 C
385 17-11-2020 08:00:00 10.7 C 86 % 8.46 C
386 17-11-2020 08:05:00 10.6 C 86 % 8.36 C
387 17-11-2020 08:10:00 10.6 C 86 % 8.36 C
388 17-11-2020 08:15:00 10.6 C 86 % 8.36 C
389 17-11-2020 08:20:00 10.7 C 86 % 8.46 C
390 17-11-2020 08:25:00 10.7 C 86 % 8.46 C
391 17-11-2020 08:30:00 10.7 C 86 % 8.46 C
392 17-11-2020 08:35:00 10.7 C 86 % 8.46 C
393 17-11-2020 08:40:00 10.7 C 86 % 8.46 C
394 17-11-2020 08:45:00 10.8 C 86 % 8.56 C
395 17-11-2020 08:50:00 10.8 C 86 % 8.56 C
396 17-11-2020 08:55:00 10.8 C 86 % 8.56 C
397 17-11-2020 09:00:00 10.8 C 86 % 8.56 C
398 17-11-2020 09:05:00 10.8 C 86 % 8.56 C
399 17-11-2020 09:10:00 10.8 C 86 % 8.56 C
400 17-11-2020 09:15:00 10.9 C 86 % 8.65 C
Sensor: Nr:Datum:Temp:Feuchte:Taupunkt:
Aussen-T/F 401 17-11-2020 09:20:00 10.9 C 86 % 8.65 C
402 17-11-2020 09:25:00 11 C 86 % 8.75 C
403 17-11-2020 09:30:00 11.1 C 86 % 8.85 C
404 17-11-2020 09:35:00 11.1 C 86 % 8.85 C
405 17-11-2020 09:40:00 11.1 C 86 % 8.85 C
406 17-11-2020 09:45:00 11.1 C 85 % 8.68 C
407 17-11-2020 09:50:00 11.2 C 86 % 8.95 C
408 17-11-2020 09:55:00 11.2 C 85 % 8.77 C
409 17-11-2020 10:00:00 11.2 C 85 % 8.77 C
410 17-11-2020 10:05:00 11.2 C 85 % 8.77 C
411 17-11-2020 10:10:00 11.2 C 85 % 8.77 C
412 17-11-2020 10:15:00 11.2 C 86 % 8.95 C
413 17-11-2020 10:20:00 11.3 C 85 % 8.87 C
414 17-11-2020 10:25:00 11.4 C 85 % 8.97 C
415 17-11-2020 10:30:00 11.4 C 85 % 8.97 C
416 17-11-2020 10:35:00 11.4 C 85 % 8.97 C
417 17-11-2020 10:40:00 11.5 C 85 % 9.07 C
418 17-11-2020 10:45:00 11.6 C 84 % 8.99 C
419 17-11-2020 10:50:00 11.7 C 84 % 9.09 C
420 17-11-2020 10:55:00 11.8 C 84 % 9.19 C
421 17-11-2020 11:00:00 11.8 C 84 % 9.19 C
422 17-11-2020 11:05:00 11.8 C 84 % 9.19 C
423 17-11-2020 11:10:00 11.9 C 84 % 9.29 C
424 17-11-2020 11:15:00 11.9 C 83 % 9.11 C
425 17-11-2020 11:20:00 11.9 C 83 % 9.11 C
Sensor: Nr:Datum:Temp:Feuchte:Taupunkt:
Aussen-T/F 426 17-11-2020 11:25:00 11.9 C 83 % 9.11 C
427 17-11-2020 11:30:00 11.9 C 83 % 9.11 C
428 17-11-2020 11:35:00 12 C 83 % 9.21 C
429 17-11-2020 11:40:00 12.1 C 83 % 9.3 C
430 17-11-2020 11:45:00 12.2 C 83 % 9.4 C
431 17-11-2020 11:50:00 12.2 C 83 % 9.4 C
432 17-11-2020 11:55:00 12.3 C 83 % 9.5 C
433 17-11-2020 12:00:00 12.3 C 83 % 9.5 C
434 17-11-2020 12:05:00 12.4 C 82 % 9.42 C
435 17-11-2020 12:10:00 12.5 C 82 % 9.51 C
436 17-11-2020 12:15:00 12.6 C 82 % 9.61 C
437 17-11-2020 12:20:00 12.6 C 82 % 9.61 C
438 17-11-2020 12:25:00 12.7 C 82 % 9.71 C
439 17-11-2020 12:30:00 12.7 C 82 % 9.71 C
440 17-11-2020 12:35:00 12.8 C 81 % 9.62 C
441 17-11-2020 12:40:00 12.8 C 81 % 9.62 C
442 17-11-2020 12:45:00 12.8 C 80 % 9.44 C
443 17-11-2020 12:50:00 12.8 C 81 % 9.62 C
444 17-11-2020 12:55:00 12.7 C 81 % 9.53 C
445 17-11-2020 13:00:00 12.7 C 81 % 9.53 C
446 17-11-2020 13:05:00 12.7 C 81 % 9.53 C
447 17-11-2020 13:10:00 12.7 C 81 % 9.53 C
448 17-11-2020 13:15:00 12.8 C 81 % 9.62 C
449 17-11-2020 13:20:00 12.8 C 81 % 9.62 C
450 17-11-2020 13:25:00 12.8 C 81 % 9.62 C
Sensor: Nr:Datum:Temp:Feuchte:Taupunkt:
Aussen-T/F 451 17-11-2020 13:30:00 12.9 C 81 % 9.72 C
452 17-11-2020 13:35:00 12.9 C 81 % 9.72 C
453 17-11-2020 13:40:00 12.9 C 81 % 9.72 C
454 17-11-2020 13:45:00 12.9 C 81 % 9.72 C
455 17-11-2020 13:50:00 12.9 C 81 % 9.72 C
456 17-11-2020 13:55:00 12.9 C 81 % 9.72 C
457 17-11-2020 14:00:00 13 C 80 % 9.63 C
458 17-11-2020 14:05:00 13.1 C 80 % 9.73 C
459 17-11-2020 14:10:00 13.1 C 80 % 9.73 C
460 17-11-2020 14:15:00 13.2 C 80 % 9.83 C
461 17-11-2020 14:20:00 13.1 C 80 % 9.73 C
462 17-11-2020 14:25:00 13.1 C 80 % 9.73 C
463 17-11-2020 14:30:00 13.1 C 80 % 9.73 C
464 17-11-2020 14:35:00 13.1 C 80 % 9.73 C
465 17-11-2020 14:40:00 13 C 80 % 9.63 C
466 17-11-2020 14:45:00 12.9 C 80 % 9.54 C
467 17-11-2020 14:50:00 12.9 C 80 % 9.54 C
468 17-11-2020 14:55:00 12.9 C 81 % 9.72 C
469 17-11-2020 15:00:00 12.8 C 81 % 9.62 C
470 17-11-2020 15:05:00 12.8 C 81 % 9.62 C
471 17-11-2020 15:10:00 12.8 C 81 % 9.62 C
472 17-11-2020 15:15:00 12.8 C 81 % 9.62 C
473 17-11-2020 15:20:00 12.8 C 81 % 9.62 C
474 17-11-2020 15:25:00 12.8 C 81 % 9.62 C
475 17-11-2020 15:30:00 12.8 C 81 % 9.62 C
Sensor: Nr:Datum:Temp:Feuchte:Taupunkt:
Aussen-T/F 476 17-11-2020 15:35:00 12.8 C 81 % 9.62 C
477 17-11-2020 15:40:00 12.8 C 81 % 9.62 C
478 17-11-2020 15:45:00 12.8 C 81 % 9.62 C
479 17-11-2020 15:50:00 12.8 C 81 % 9.62 C
480 17-11-2020 15:55:00 12.8 C 81 % 9.62 C
481 17-11-2020 16:00:00 12.8 C 81 % 9.62 C
482 17-11-2020 16:05:00 12.7 C 81 % 9.53 C
483 17-11-2020 16:10:00 12.7 C 81 % 9.53 C
484 17-11-2020 16:15:00 12.7 C 81 % 9.53 C
485 17-11-2020 16:20:00 12.7 C 81 % 9.53 C
486 17-11-2020 16:25:00 12.7 C 81 % 9.53 C
487 17-11-2020 16:30:00 12.7 C 82 % 9.71 C
488 17-11-2020 16:35:00 12.6 C 82 % 9.61 C
489 17-11-2020 16:40:00 12.6 C 81 % 9.43 C
490 17-11-2020 16:45:00 12.6 C 82 % 9.61 C
491 17-11-2020 16:50:00 12.6 C 82 % 9.61 C
492 17-11-2020 16:55:00 12.5 C 82 % 9.51 C
493 17-11-2020 17:00:00 12.5 C 82 % 9.51 C
494 17-11-2020 17:05:00 12.4 C 82 % 9.42 C
495 17-11-2020 17:10:00 12.4 C 82 % 9.42 C
496 17-11-2020 17:15:00 12.4 C 82 % 9.42 C
497 17-11-2020 17:20:00 12.4 C 82 % 9.42 C
498 17-11-2020 17:25:00 12.4 C 83 % 9.6 C
499 17-11-2020 17:30:00 12.4 C 83 % 9.6 C
500 17-11-2020 17:35:00 12.3 C 83 % 9.5 C
Sensor: Nr:Datum:Temp:Feuchte:Taupunkt:
Aussen-T/F 501 17-11-2020 17:40:00 12.3 C 83 % 9.5 C
502 17-11-2020 17:45:00 12.3 C 83 % 9.5 C
503 17-11-2020 17:50:00 12.3 C 83 % 9.5 C
504 17-11-2020 17:55:00 12.3 C 83 % 9.5 C
505 17-11-2020 18:00:00 12.3 C 83 % 9.5 C
506 17-11-2020 18:05:00 12.3 C 83 % 9.5 C
507 17-11-2020 18:10:00 12.3 C 83 % 9.5 C
508 17-11-2020 18:15:00 12.3 C 83 % 9.5 C
509 17-11-2020 18:20:00 12.3 C 83 % 9.5 C
510 17-11-2020 18:25:00 12.3 C 83 % 9.5 C
511 17-11-2020 18:30:00 12.3 C 83 % 9.5 C
512 17-11-2020 18:35:00 12.2 C 83 % 9.4 C
513 17-11-2020 18:40:00 12.2 C 83 % 9.4 C
514 17-11-2020 18:45:00 12.2 C 84 % 9.58 C
515 17-11-2020 18:50:00 12.2 C 84 % 9.58 C
516 17-11-2020 18:55:00 12.1 C 84 % 9.48 C
517 17-11-2020 19:00:00 12.1 C 84 % 9.48 C
518 17-11-2020 19:05:00 12.1 C 84 % 9.48 C
519 17-11-2020 19:10:00 12.1 C 84 % 9.48 C
520 17-11-2020 19:15:00 12 C 84 % 9.38 C
521 17-11-2020 19:20:00 12 C 84 % 9.38 C
522 17-11-2020 19:25:00 11.9 C 85 % 9.46 C
523 17-11-2020 19:30:00 11.9 C 85 % 9.46 C
524 17-11-2020 19:35:00 11.9 C 85 % 9.46 C
525 17-11-2020 19:40:00 11.9 C 85 % 9.46 C
Sensor: Nr:Datum:Temp:Feuchte:Taupunkt:
Aussen-T/F 526 17-11-2020 19:45:00 11.9 C 85 % 9.46 C
527 17-11-2020 19:50:00 11.8 C 85 % 9.36 C
528 17-11-2020 19:55:00 11.8 C 86 % 9.54 C
529 17-11-2020 20:00:00 11.9 C 86 % 9.64 C
530 17-11-2020 20:05:00 11.9 C 86 % 9.64 C
531 17-11-2020 20:10:00 11.9 C 86 % 9.64 C
532 17-11-2020 20:15:00 11.8 C 86 % 9.54 C
533 17-11-2020 20:20:00 11.8 C 86 % 9.54 C
534 17-11-2020 20:25:00 11.8 C 86 % 9.54 C
535 17-11-2020 20:30:00 11.8 C 86 % 9.54 C
536 17-11-2020 20:35:00 11.8 C 86 % 9.54 C
537 17-11-2020 20:40:00 11.8 C 86 % 9.54 C
538 17-11-2020 20:45:00 11.9 C 86 % 9.64 C
539 17-11-2020 20:50:00 11.9 C 86 % 9.64 C
540 17-11-2020 20:55:00 11.9 C 86 % 9.64 C
541 17-11-2020 21:00:00 11.9 C 86 % 9.64 C
542 17-11-2020 21:05:00 11.8 C 86 % 9.54 C
543 17-11-2020 21:10:00 11.8 C 86 % 9.54 C
544 17-11-2020 21:15:00 11.8 C 86 % 9.54 C
545 17-11-2020 21:20:00 11.9 C 86 % 9.64 C
546 17-11-2020 21:25:00 11.9 C 86 % 9.64 C
547 17-11-2020 21:30:00 11.8 C 86 % 9.54 C
548 17-11-2020 21:35:00 11.8 C 86 % 9.54 C
549 17-11-2020 21:40:00 11.8 C 86 % 9.54 C
550 17-11-2020 21:45:00 11.8 C 86 % 9.54 C
Sensor: Nr:Datum:Temp:Feuchte:Taupunkt:
Aussen-T/F 551 17-11-2020 21:50:00 11.8 C 86 % 9.54 C
552 17-11-2020 21:55:00 11.8 C 86 % 9.54 C
553 17-11-2020 22:00:00 11.8 C 86 % 9.54 C
554 17-11-2020 22:05:00 11.7 C 86 % 9.44 C
555 17-11-2020 22:10:00 11.7 C 86 % 9.44 C
556 17-11-2020 22:15:00 11.7 C 86 % 9.44 C
557 17-11-2020 22:20:00 11.7 C 86 % 9.44 C
558 17-11-2020 22:25:00 11.7 C 87 % 9.61 C
559 17-11-2020 22:30:00 11.7 C 87 % 9.61 C
560 17-11-2020 22:35:00 11.6 C 87 % 9.51 C
561 17-11-2020 22:40:00 11.6 C 87 % 9.51 C
562 17-11-2020 22:45:00 11.6 C 87 % 9.51 C
563 17-11-2020 22:50:00 11.6 C 87 % 9.51 C
564 17-11-2020 22:55:00 11.6 C 87 % 9.51 C
565 17-11-2020 23:00:00 11.6 C 86 % 9.34 C
566 17-11-2020 23:05:00 11.6 C 86 % 9.34 C
567 17-11-2020 23:10:00 11.6 C 86 % 9.34 C
568 17-11-2020 23:15:00 11.5 C 86 % 9.24 C
569 17-11-2020 23:20:00 11.5 C 86 % 9.24 C
570 17-11-2020 23:25:00 11.5 C 86 % 9.24 C
571 17-11-2020 23:30:00 11.6 C 86 % 9.34 C
572 17-11-2020 23:35:00 11.6 C 85 % 9.17 C
573 17-11-2020 23:40:00 11.6 C 85 % 9.17 C
574 17-11-2020 23:45:00 11.6 C 85 % 9.17 C
575 17-11-2020 23:50:00 11.6 C 85 % 9.17 C
Sensor: Nr:Datum:Temp:Feuchte:Taupunkt:
Aussen-T/F 576 17-11-2020 23:55:00 11.7 C 85 % 9.27 C
577 18-11-2020 00:00:00 11.7 C 85 % 9.27 C
578 18-11-2020 00:05:00 11.7 C 85 % 9.27 C
579 18-11-2020 00:10:00 11.6 C 85 % 9.17 C
580 18-11-2020 00:15:00 11.6 C 85 % 9.17 C
581 18-11-2020 00:20:00 11.6 C 85 % 9.17 C
582 18-11-2020 00:25:00 11.6 C 85 % 9.17 C
583 18-11-2020 00:30:00 11.5 C 85 % 9.07 C
584 18-11-2020 00:35:00 11.5 C 85 % 9.07 C
585 18-11-2020 00:40:00 11.4 C 85 % 8.97 C
586 18-11-2020 00:45:00 11.4 C 85 % 8.97 C
587 18-11-2020 00:50:00 11.4 C 85 % 8.97 C
588 18-11-2020 00:55:00 11.4 C 85 % 8.97 C
589 18-11-2020 01:00:00 11.4 C 85 % 8.97 C
590 18-11-2020 01:05:00 11.4 C 85 % 8.97 C
591 18-11-2020 01:10:00 11.4 C 86 % 9.14 C
592 18-11-2020 01:15:00 11.4 C 86 % 9.14 C
593 18-11-2020 01:20:00 11.4 C 86 % 9.14 C
594 18-11-2020 01:25:00 11.4 C 86 % 9.14 C
595 18-11-2020 01:30:00 11.3 C 86 % 9.05 C
596 18-11-2020 01:35:00 11.3 C 86 % 9.05 C
597 18-11-2020 01:40:00 11.3 C 86 % 9.05 C
598 18-11-2020 01:45:00 11.3 C 86 % 9.05 C
599 18-11-2020 01:50:00 11.3 C 86 % 9.05 C
600 18-11-2020 01:55:00 11.3 C 86 % 9.05 C
Sensor: Nr:Datum:Temp:Feuchte:Taupunkt:
Aussen-T/F 601 18-11-2020 02:00:00 11.3 C 86 % 9.05 C
602 18-11-2020 02:05:00 11.3 C 86 % 9.05 C
603 18-11-2020 02:10:00 11.3 C 86 % 9.05 C
604 18-11-2020 02:15:00 11.3 C 86 % 9.05 C
605 18-11-2020 02:20:00 11.3 C 86 % 9.05 C
606 18-11-2020 02:25:00 11.3 C 86 % 9.05 C
607 18-11-2020 02:30:00 11.3 C 86 % 9.05 C
608 18-11-2020 02:35:00 11.3 C 86 % 9.05 C
609 18-11-2020 02:40:00 11.3 C 86 % 9.05 C
610 18-11-2020 02:45:00 11.3 C 86 % 9.05 C
611 18-11-2020 02:50:00 11.3 C 86 % 9.05 C
612 18-11-2020 02:55:00 11.3 C 86 % 9.05 C
613 18-11-2020 03:00:00 11.2 C 86 % 8.95 C
614 18-11-2020 03:05:00 11.2 C 86 % 8.95 C
615 18-11-2020 03:10:00 11.2 C 86 % 8.95 C
616 18-11-2020 03:15:00 11.2 C 86 % 8.95 C
617 18-11-2020 03:20:00 11.2 C 86 % 8.95 C
618 18-11-2020 03:25:00 11.2 C 86 % 8.95 C
619 18-11-2020 03:30:00 11.2 C 86 % 8.95 C
620 18-11-2020 03:35:00 11.2 C 87 % 9.12 C
621 18-11-2020 03:40:00 11.2 C 87 % 9.12 C
622 18-11-2020 03:45:00 11.1 C 87 % 9.02 C
623 18-11-2020 03:50:00 11.1 C 87 % 9.02 C
624 18-11-2020 03:55:00 11.1 C 87 % 9.02 C
625 18-11-2020 04:00:00 11 C 87 % 8.92 C
Sensor: Nr:Datum:Temp:Feuchte:Taupunkt:
Aussen-T/F 626 18-11-2020 04:05:00 11 C 87 % 8.92 C
627 18-11-2020 04:10:00 11 C 87 % 8.92 C
628 18-11-2020 04:15:00 11 C 87 % 8.92 C
629 18-11-2020 04:20:00 11 C 87 % 8.92 C
630 18-11-2020 04:25:00 11 C 87 % 8.92 C
631 18-11-2020 04:30:00 10.9 C 87 % 8.82 C
632 18-11-2020 04:35:00 10.9 C 87 % 8.82 C
633 18-11-2020 04:40:00 10.9 C 87 % 8.82 C
634 18-11-2020 04:45:00 10.9 C 87 % 8.82 C
635 18-11-2020 04:50:00 10.9 C 87 % 8.82 C
636 18-11-2020 04:55:00 10.9 C 87 % 8.82 C
637 18-11-2020 05:00:00 10.9 C 88 % 8.99 C
638 18-11-2020 05:05:00 10.8 C 87 % 8.73 C
639 18-11-2020 05:10:00 10.8 C 87 % 8.73 C
640 18-11-2020 05:15:00 10.8 C 87 % 8.73 C
641 18-11-2020 05:20:00 10.8 C 88 % 8.89 C
642 18-11-2020 05:25:00 10.8 C 88 % 8.89 C
643 18-11-2020 05:30:00 10.8 C 87 % 8.73 C
644 18-11-2020 05:35:00 10.8 C 87 % 8.73 C
645 18-11-2020 05:40:00 10.8 C 87 % 8.73 C
646 18-11-2020 05:45:00 10.8 C 88 % 8.89 C
647 18-11-2020 05:50:00 10.8 C 87 % 8.73 C
648 18-11-2020 05:55:00 10.7 C 87 % 8.63 C
649 18-11-2020 06:00:00 10.7 C 87 % 8.63 C
650 18-11-2020 06:05:00 10.7 C 88 % 8.8 C
Sensor: Nr:Datum:Temp:Feuchte:Taupunkt:
Aussen-T/F 651 18-11-2020 06:10:00 10.7 C 88 % 8.8 C
652 18-11-2020 06:15:00 10.7 C 88 % 8.8 C
653 18-11-2020 06:20:00 10.7 C 88 % 8.8 C
654 18-11-2020 06:25:00 10.7 C 88 % 8.8 C
655 18-11-2020 06:30:00 10.7 C 88 % 8.8 C
656 18-11-2020 06:35:00 10.7 C 88 % 8.8 C
657 18-11-2020 06:40:00 10.7 C 88 % 8.8 C
658 18-11-2020 06:45:00 10.7 C 88 % 8.8 C
659 18-11-2020 06:50:00 10.7 C 88 % 8.8 C
660 18-11-2020 06:55:00 10.7 C 88 % 8.8 C
661 18-11-2020 07:00:00 10.7 C 88 % 8.8 C
662 18-11-2020 07:05:00 10.7 C 88 % 8.8 C
663 18-11-2020 07:10:00 10.7 C 88 % 8.8 C
664 18-11-2020 07:15:00 10.7 C 88 % 8.8 C
665 18-11-2020 07:20:00 10.7 C 88 % 8.8 C
666 18-11-2020 07:25:00 10.7 C 88 % 8.8 C
667 18-11-2020 07:30:00 10.7 C 88 % 8.8 C
668 18-11-2020 07:35:00 10.7 C 88 % 8.8 C
669 18-11-2020 07:40:00 10.7 C 88 % 8.8 C
670 18-11-2020 07:45:00 10.7 C 89 % 8.96 C
671 18-11-2020 07:50:00 10.7 C 89 % 8.96 C
672 18-11-2020 07:55:00 10.7 C 89 % 8.96 C
673 18-11-2020 08:00:00 10.7 C 89 % 8.96 C
674 18-11-2020 08:05:00 10.7 C 88 % 8.8 C
675 18-11-2020 08:10:00 10.7 C 88 % 8.8 C
Sensor: Nr:Datum:Temp:Feuchte:Taupunkt:
Aussen-T/F 676 18-11-2020 08:15:00 10.8 C 88 % 8.89 C
677 18-11-2020 08:20:00 10.8 C 88 % 8.89 C
678 18-11-2020 08:25:00 10.8 C 87 % 8.73 C
679 18-11-2020 08:30:00 10.8 C 87 % 8.73 C
680 18-11-2020 08:35:00 10.8 C 87 % 8.73 C
681 18-11-2020 08:40:00 10.8 C 87 % 8.73 C
682 18-11-2020 08:45:00 10.8 C 87 % 8.73 C
683 18-11-2020 08:50:00 10.8 C 86 % 8.56 C
684 18-11-2020 08:55:00 10.8 C 87 % 8.73 C
685 18-11-2020 09:00:00 10.8 C 87 % 8.73 C
686 18-11-2020 09:05:00 10.8 C 86 % 8.56 C
687 18-11-2020 09:10:00 10.8 C 87 % 8.73 C
688 18-11-2020 09:15:00 10.8 C 87 % 8.73 C
689 18-11-2020 09:20:00 10.8 C 87 % 8.73 C
690 18-11-2020 09:25:00 10.8 C 86 % 8.56 C
691 18-11-2020 09:30:00 10.8 C 87 % 8.73 C
692 18-11-2020 09:35:00 10.7 C 86 % 8.46 C
693 18-11-2020 09:40:00 10.5 C 86 % 8.26 C
694 18-11-2020 09:45:00 10.3 C 87 % 8.23 C
695 18-11-2020 09:50:00 10.1 C 87 % 8.04 C
696 18-11-2020 09:55:00 10 C 87 % 7.94 C
697 18-11-2020 10:00:00 9.8 C 88 % 7.91 C
698 18-11-2020 10:05:00 9.7 C 88 % 7.81 C
699 18-11-2020 10:10:00 9.6 C 88 % 7.71 C
700 18-11-2020 10:15:00 9.5 C 89 % 7.78 C
Sensor: Nr:Datum:Temp:Feuchte:Taupunkt:
Aussen-T/F 701 18-11-2020 10:20:00 9.4 C 89 % 7.68 C
702 18-11-2020 10:25:00 9.4 C 90 % 7.85 C
703 18-11-2020 10:30:00 9.3 C 90 % 7.75 C
704 18-11-2020 10:35:00 9.3 C 90 % 7.75 C
705 18-11-2020 10:40:00 9.3 C 91 % 7.91 C
706 18-11-2020 10:45:00 9.3 C 91 % 7.91 C
707 18-11-2020 10:50:00 9.3 C 91 % 7.91 C
708 18-11-2020 10:55:00 9.3 C 92 % 8.07 C
709 18-11-2020 11:00:00 9.3 C 92 % 8.07 C
710 18-11-2020 11:05:00 9.4 C 92 % 8.17 C
711 18-11-2020 11:10:00 9.4 C 92 % 8.17 C
712 18-11-2020 11:15:00 9.5 C 92 % 8.27 C
713 18-11-2020 11:20:00 9.6 C 92 % 8.37 C
714 18-11-2020 11:25:00 9.6 C 93 % 8.53 C
715 18-11-2020 11:30:00 9.6 C 93 % 8.53 C
716 18-11-2020 11:35:00 9.7 C 93 % 8.62 C
717 18-11-2020 11:40:00 9.7 C 93 % 8.62 C
718 18-11-2020 11:45:00 9.7 C 93 % 8.62 C
719 18-11-2020 11:50:00 9.8 C 93 % 8.72 C
720 18-11-2020 11:55:00 9.9 C 93 % 8.82 C
721 18-11-2020 12:00:00 9.9 C 93 % 8.82 C
722 18-11-2020 12:05:00 10 C 93 % 8.92 C
723 18-11-2020 12:10:00 10.1 C 92 % 8.86 C
724 18-11-2020 12:15:00 10.2 C 92 % 8.96 C
725 18-11-2020 12:20:00 10.2 C 92 % 8.96 C
Sensor: Nr:Datum:Temp:Feuchte:Taupunkt:
Aussen-T/F 726 18-11-2020 12:25:00 10.3 C 92 % 9.06 C
727 18-11-2020 12:30:00 10.3 C 92 % 9.06 C
728 18-11-2020 12:35:00 10.4 C 92 % 9.16 C
729 18-11-2020 12:40:00 10.6 C 92 % 9.36 C
730 18-11-2020 12:45:00 10.7 C 91 % 9.29 C
731 18-11-2020 12:50:00 10.7 C 91 % 9.29 C
732 18-11-2020 12:55:00 10.8 C 91 % 9.39 C
733 18-11-2020 13:00:00 10.8 C 91 % 9.39 C
734 18-11-2020 13:05:00 10.8 C 91 % 9.39 C
735 18-11-2020 13:10:00 10.8 C 91 % 9.39 C
736 18-11-2020 13:15:00 10.9 C 91 % 9.49 C
737 18-11-2020 13:20:00 10.9 C 91 % 9.49 C
738 18-11-2020 13:25:00 10.9 C 91 % 9.49 C
739 18-11-2020 13:30:00 11 C 91 % 9.59 C
740 18-11-2020 13:35:00 11 C 91 % 9.59 C
741 18-11-2020 13:40:00 11.1 C 91 % 9.69 C
742 18-11-2020 13:45:00 11.1 C 91 % 9.69 C
743 18-11-2020 13:50:00 11.2 C 91 % 9.79 C
744 18-11-2020 13:55:00 11.2 C 91 % 9.79 C
745 18-11-2020 14:00:00 11.2 C 91 % 9.79 C
746 18-11-2020 14:05:00 11.3 C 91 % 9.89 C
747 18-11-2020 14:10:00 11.3 C 90 % 9.72 C
748 18-11-2020 14:15:00 11.3 C 90 % 9.72 C
749 18-11-2020 14:20:00 11.4 C 91 % 9.98 C
750 18-11-2020 14:25:00 11.4 C 90 % 9.82 C
Sensor: Nr:Datum:Temp:Feuchte:Taupunkt:
Aussen-T/F 751 18-11-2020 14:30:00 11.5 C 90 % 9.92 C
752 18-11-2020 14:35:00 11.6 C 90 % 10.02 C
753 18-11-2020 14:40:00 11.7 C 89 % 9.95 C
754 18-11-2020 14:45:00 11.8 C 89 % 10.05 C
755 18-11-2020 14:50:00 11.9 C 89 % 10.15 C
756 18-11-2020 14:55:00 12.1 C 88 % 10.17 C
757 18-11-2020 15:00:00 12.1 C 88 % 10.17 C
758 18-11-2020 15:05:00 12.2 C 88 % 10.27 C
759 18-11-2020 15:10:00 12.2 C 88 % 10.27 C
760 18-11-2020 15:15:00 12.3 C 88 % 10.37 C
761 18-11-2020 15:20:00 12.2 C 87 % 10.1 C
762 18-11-2020 15:25:00 12.2 C 88 % 10.27 C
763 18-11-2020 15:30:00 12.2 C 87 % 10.1 C
764 18-11-2020 15:35:00 12.2 C 88 % 10.27 C
765 18-11-2020 15:40:00 12.2 C 87 % 10.1 C
766 18-11-2020 15:45:00 12.1 C 87 % 10 C
767 18-11-2020 15:50:00 12 C 87 % 9.91 C
768 18-11-2020 15:55:00 11.9 C 88 % 9.98 C
769 18-11-2020 16:00:00 11.8 C 88 % 9.88 C
770 18-11-2020 16:05:00 11.8 C 88 % 9.88 C
771 18-11-2020 16:10:00 11.7 C 88 % 9.78 C
772 18-11-2020 16:15:00 11.6 C 88 % 9.68 C
773 18-11-2020 16:20:00 11.4 C 88 % 9.49 C
774 18-11-2020 16:25:00 11.3 C 88 % 9.39 C
775 18-11-2020 16:30:00 11.2 C 88 % 9.29 C
Sensor: Nr:Datum:Temp:Feuchte:Taupunkt:
Aussen-T/F 776 18-11-2020 16:35:00 11.1 C 88 % 9.19 C
777 18-11-2020 16:40:00 10.9 C 88 % 8.99 C
778 18-11-2020 16:45:00 10.8 C 88 % 8.89 C
779 18-11-2020 16:50:00 10.7 C 89 % 8.96 C
780 18-11-2020 16:55:00 10.5 C 88 % 8.6 C
781 18-11-2020 17:00:00 10.3 C 89 % 8.57 C
782 18-11-2020 17:05:00 10.2 C 89 % 8.47 C
783 18-11-2020 17:10:00 10 C 89 % 8.27 C
784 18-11-2020 17:15:00 9.8 C 89 % 8.08 C
785 18-11-2020 17:20:00 9.7 C 90 % 8.14 C
786 18-11-2020 17:25:00 9.6 C 90 % 8.04 C
787 18-11-2020 17:30:00 9.5 C 90 % 7.94 C
788 18-11-2020 17:35:00 9.4 C 90 % 7.85 C
789 18-11-2020 17:40:00 9.3 C 91 % 7.91 C
790 18-11-2020 17:45:00 9.2 C 91 % 7.81 C
791 18-11-2020 17:50:00 9.2 C 91 % 7.81 C
792 18-11-2020 17:55:00 9.1 C 91 % 7.71 C
793 18-11-2020 18:00:00 9 C 92 % 7.77 C
794 18-11-2020 18:05:00 8.9 C 92 % 7.67 C
795 18-11-2020 18:10:00 8.8 C 92 % 7.57 C
796 18-11-2020 18:15:00 8.8 C 92 % 7.57 C
797 18-11-2020 18:20:00 8.7 C 92 % 7.47 C
798 18-11-2020 18:25:00 8.7 C 92 % 7.47 C
799 18-11-2020 18:30:00 8.7 C 92 % 7.47 C
800 18-11-2020 18:35:00 8.6 C 92 % 7.38 C
Sensor: Nr:Datum:Temp:Feuchte:Taupunkt:
Aussen-T/F 801 18-11-2020 18:40:00 8.5 C 92 % 7.28 C
802 18-11-2020 18:45:00 8.4 C 92 % 7.18 C
803 18-11-2020 18:50:00 8.3 C 92 % 7.08 C
804 18-11-2020 18:55:00 8.3 C 93 % 7.24 C
805 18-11-2020 19:00:00 8.3 C 93 % 7.24 C
806 18-11-2020 19:05:00 8.2 C 92 % 6.98 C
807 18-11-2020 19:10:00 8.1 C 93 % 7.04 C
808 18-11-2020 19:15:00 8 C 93 % 6.94 C
809 18-11-2020 19:20:00 8.1 C 93 % 7.04 C
810 18-11-2020 19:25:00 8.1 C 94 % 7.19 C
811 18-11-2020 19:30:00 8.1 C 93 % 7.04 C
812 18-11-2020 19:35:00 7.9 C 93 % 6.84 C
813 18-11-2020 19:40:00 7.9 C 93 % 6.84 C
814 18-11-2020 19:45:00 7.9 C 93 % 6.84 C
815 18-11-2020 19:50:00 7.8 C 93 % 6.74 C
816 18-11-2020 19:55:00 7.7 C 93 % 6.64 C
817 18-11-2020 20:00:00 7.6 C 93 % 6.54 C
818 18-11-2020 20:05:00 7.6 C 94 % 6.7 C
819 18-11-2020 20:10:00 7.6 C 94 % 6.7 C
820 18-11-2020 20:15:00 7.5 C 93 % 6.44 C
821 18-11-2020 20:20:00 7.4 C 93 % 6.34 C
822 18-11-2020 20:25:00 7.3 C 93 % 6.25 C
823 18-11-2020 20:30:00 7.3 C 93 % 6.25 C
824 18-11-2020 20:35:00 7.2 C 93 % 6.15 C
825 18-11-2020 20:40:00 7.1 C 93 % 6.05 C
Sensor: Nr:Datum:Temp:Feuchte:Taupunkt:
Aussen-T/F 826 18-11-2020 20:45:00 7.1 C 93 % 6.05 C
827 18-11-2020 20:50:00 7 C 94 % 6.1 C
828 18-11-2020 20:55:00 6.9 C 94 % 6 C
829 18-11-2020 21:00:00 6.9 C 94 % 6 C
830 18-11-2020 21:05:00 6.8 C 94 % 5.9 C
831 18-11-2020 21:10:00 6.8 C 94 % 5.9 C
832 18-11-2020 21:15:00 6.7 C 94 % 5.8 C
833 18-11-2020 21:20:00 6.7 C 94 % 5.8 C
834 18-11-2020 21:25:00 6.7 C 94 % 5.8 C
835 18-11-2020 21:30:00 6.7 C 94 % 5.8 C
836 18-11-2020 21:35:00 6.6 C 94 % 5.71 C
837 18-11-2020 21:40:00 6.6 C 94 % 5.71 C
838 18-11-2020 21:45:00 6.5 C 94 % 5.61 C
839 18-11-2020 21:50:00 6.5 C 94 % 5.61 C
840 18-11-2020 21:55:00 6.5 C 95 % 5.76 C
841 18-11-2020 22:00:00 6.6 C 95 % 5.86 C
842 18-11-2020 22:05:00 6.5 C 95 % 5.76 C
843 18-11-2020 22:10:00 6.5 C 95 % 5.76 C
844 18-11-2020 22:15:00 6.4 C 94 % 5.51 C
845 18-11-2020 22:20:00 6.4 C 94 % 5.51 C
846 18-11-2020 22:25:00 6.3 C 94 % 5.41 C
847 18-11-2020 22:30:00 6.3 C 94 % 5.41 C
848 18-11-2020 22:35:00 6.3 C 95 % 5.56 C
849 18-11-2020 22:40:00 6.3 C 95 % 5.56 C
850 18-11-2020 22:45:00 6.3 C 95 % 5.56 C
Sensor: Nr:Datum:Temp:Feuchte:Taupunkt:
Aussen-T/F 851 18-11-2020 22:50:00 6.2 C 95 % 5.46 C
852 18-11-2020 22:55:00 6.1 C 94 % 5.21 C
853 18-11-2020 23:00:00 6.1 C 95 % 5.36 C
854 18-11-2020 23:05:00 6.1 C 95 % 5.36 C
855 18-11-2020 23:10:00 6 C 95 % 5.26 C
856 18-11-2020 23:15:00 5.9 C 95 % 5.16 C
857 18-11-2020 23:20:00 6 C 95 % 5.26 C
858 18-11-2020 23:25:00 6 C 95 % 5.26 C
859 18-11-2020 23:30:00 6.1 C 95 % 5.36 C
860 18-11-2020 23:35:00 6 C 95 % 5.26 C
861 18-11-2020 23:40:00 6 C 95 % 5.26 C
862 18-11-2020 23:45:00 6 C 95 % 5.26 C
863 18-11-2020 23:50:00 6 C 95 % 5.26 C
864 18-11-2020 23:55:00 5.9 C 95 % 5.16 C
865 19-11-2020 00:00:00 5.9 C 95 % 5.16 C
866 19-11-2020 00:05:00 5.8 C 95 % 5.06 C
867 19-11-2020 00:10:00 5.9 C 95 % 5.16 C
868 19-11-2020 00:15:00 6.1 C 95 % 5.36 C
869 19-11-2020 00:20:00 6.1 C 96 % 5.51 C
870 19-11-2020 00:25:00 6.3 C 96 % 5.71 C
871 19-11-2020 00:30:00 6.9 C 97 % 6.46 C
872 19-11-2020 00:35:00 7.2 C 97 % 6.76 C
873 19-11-2020 00:40:00 7.6 C 97 % 7.16 C
874 19-11-2020 00:45:00 8.2 C 97 % 7.75 C
875 19-11-2020 00:50:00 8.5 C 96 % 7.9 C
Sensor: Nr:Datum:Temp:Feuchte:Taupunkt:
Aussen-T/F 876 19-11-2020 00:55:00 8.8 C 96 % 8.2 C
877 19-11-2020 01:00:00 9.2 C 94 % 8.29 C
878 19-11-2020 01:05:00 9.6 C 93 % 8.53 C
879 19-11-2020 01:10:00 10.2 C 90 % 8.64 C
880 19-11-2020 01:15:00 10.8 C 87 % 8.73 C
881 19-11-2020 01:20:00 11.3 C 84 % 8.7 C
882 19-11-2020 01:25:00 11.5 C 83 % 8.72 C
883 19-11-2020 01:30:00 11.7 C 82 % 8.73 C
884 19-11-2020 01:35:00 11.8 C 81 % 8.65 C
885 19-11-2020 01:40:00 11.8 C 81 % 8.65 C
886 19-11-2020 01:45:00 11.9 C 81 % 8.75 C
887 19-11-2020 01:50:00 11.9 C 80 % 8.56 C
888 19-11-2020 01:55:00 12 C 80 % 8.66 C
889 19-11-2020 02:00:00 12.1 C 80 % 8.76 C
890 19-11-2020 02:05:00 12.1 C 80 % 8.76 C
891 19-11-2020 02:10:00 12.1 C 80 % 8.76 C
892 19-11-2020 02:15:00 12.2 C 79 % 8.67 C
893 19-11-2020 02:20:00 12.2 C 80 % 8.86 C
894 19-11-2020 02:25:00 12.2 C 81 % 9.04 C
895 19-11-2020 02:30:00 12.1 C 81 % 8.94 C
896 19-11-2020 02:35:00 12.1 C 83 % 9.3 C
897 19-11-2020 02:40:00 11.9 C 84 % 9.29 C
898 19-11-2020 02:45:00 11.7 C 86 % 9.44 C
899 19-11-2020 02:50:00 11.3 C 88 % 9.39 C
900 19-11-2020 02:55:00 11.1 C 89 % 9.36 C
Sensor: Nr:Datum:Temp:Feuchte:Taupunkt:
Aussen-T/F 901 19-11-2020 03:00:00 10.9 C 89 % 9.16 C
902 19-11-2020 03:05:00 10.8 C 90 % 9.23 C
903 19-11-2020 03:10:00 10.8 C 91 % 9.39 C
904 19-11-2020 03:15:00 10.7 C 91 % 9.29 C
905 19-11-2020 03:20:00 10.7 C 91 % 9.29 C
906 19-11-2020 03:25:00 10.6 C 91 % 9.19 C
907 19-11-2020 03:30:00 10.6 C 91 % 9.19 C
908 19-11-2020 03:35:00 10.6 C 91 % 9.19 C
909 19-11-2020 03:40:00 10.5 C 91 % 9.09 C
910 19-11-2020 03:45:00 10.6 C 92 % 9.36 C
911 19-11-2020 03:50:00 10.6 C 92 % 9.36 C
912 19-11-2020 03:55:00 10.7 C 91 % 9.29 C
913 19-11-2020 04:00:00 10.7 C 91 % 9.29 C
914 19-11-2020 04:05:00 10.7 C 91 % 9.29 C
915 19-11-2020 04:10:00 10.7 C 91 % 9.29 C
916 19-11-2020 04:15:00 10.7 C 91 % 9.29 C
917 19-11-2020 04:20:00 10.7 C 91 % 9.29 C
918 19-11-2020 04:25:00 10.7 C 91 % 9.29 C
919 19-11-2020 04:30:00 10.7 C 91 % 9.29 C
920 19-11-2020 04:35:00 10.7 C 91 % 9.29 C
921 19-11-2020 04:40:00 10.7 C 91 % 9.29 C
922 19-11-2020 04:45:00 10.7 C 92 % 9.45 C
923 19-11-2020 04:50:00 10.7 C 92 % 9.45 C
924 19-11-2020 04:55:00 10.7 C 92 % 9.45 C
925 19-11-2020 05:00:00 10.8 C 92 % 9.55 C
Sensor: Nr:Datum:Temp:Feuchte:Taupunkt:
Aussen-T/F 926 19-11-2020 05:05:00 10.8 C 92 % 9.55 C
927 19-11-2020 05:10:00 10.8 C 92 % 9.55 C
928 19-11-2020 05:15:00 10.8 C 92 % 9.55 C
929 19-11-2020 05:20:00 10.8 C 92 % 9.55 C
930 19-11-2020 05:25:00 10.8 C 92 % 9.55 C
931 19-11-2020 05:30:00 10.9 C 92 % 9.65 C
932 19-11-2020 05:35:00 10.8 C 93 % 9.71 C
933 19-11-2020 05:40:00 10.8 C 93 % 9.71 C
934 19-11-2020 05:45:00 10.6 C 92 % 9.36 C
935 19-11-2020 05:50:00 9.9 C 91 % 8.5 C
936 19-11-2020 05:55:00 9.6 C 92 % 8.37 C
937 19-11-2020 06:00:00 9.3 C 92 % 8.07 C
938 19-11-2020 06:05:00 9.2 C 93 % 8.13 C
939 19-11-2020 06:10:00 9.1 C 94 % 8.19 C
940 19-11-2020 06:15:00 9.1 C 94 % 8.19 C
941 19-11-2020 06:20:00 8.9 C 94 % 7.99 C
942 19-11-2020 06:25:00 8.9 C 94 % 7.99 C
943 19-11-2020 06:30:00 8.9 C 94 % 7.99 C
944 19-11-2020 06:35:00 8.9 C 95 % 8.14 C
945 19-11-2020 06:40:00 8.9 C 95 % 8.14 C
946 19-11-2020 06:45:00 8.9 C 95 % 8.14 C
947 19-11-2020 06:50:00 8.8 C 95 % 8.04 C
948 19-11-2020 06:55:00 8.8 C 94 % 7.89 C
949 19-11-2020 07:00:00 8.7 C 94 % 7.79 C
950 19-11-2020 07:05:00 8.6 C 94 % 7.69 C
Sensor: Nr:Datum:Temp:Feuchte:Taupunkt:
Aussen-T/F 951 19-11-2020 07:10:00 8.6 C 94 % 7.69 C
952 19-11-2020 07:15:00 8.5 C 94 % 7.59 C
953 19-11-2020 07:20:00 8.5 C 94 % 7.59 C
954 19-11-2020 07:25:00 8.5 C 94 % 7.59 C
955 19-11-2020 07:30:00 8.5 C 95 % 7.75 C
956 19-11-2020 07:35:00 8.5 C 95 % 7.75 C
957 19-11-2020 07:40:00 8.4 C 95 % 7.65 C
958 19-11-2020 07:45:00 8.4 C 95 % 7.65 C
959 19-11-2020 07:50:00 8.3 C 95 % 7.55 C
960 19-11-2020 07:55:00 8.2 C 94 % 7.29 C
961 19-11-2020 08:00:00 8.2 C 94 % 7.29 C
962 19-11-2020 08:05:00 8.2 C 94 % 7.29 C
963 19-11-2020 08:10:00 8.1 C 94 % 7.19 C
964 19-11-2020 08:15:00 8.1 C 94 % 7.19 C
965 19-11-2020 08:20:00 8 C 94 % 7.09 C
966 19-11-2020 08:25:00 7.9 C 95 % 7.15 C
967 19-11-2020 08:30:00 7.9 C 95 % 7.15 C
968 19-11-2020 08:35:00 7.8 C 94 % 6.9 C
969 19-11-2020 08:40:00 7.8 C 94 % 6.9 C
970 19-11-2020 08:45:00 7.8 C 94 % 6.9 C
971 19-11-2020 08:50:00 7.8 C 93 % 6.74 C
972 19-11-2020 08:55:00 7.8 C 93 % 6.74 C
973 19-11-2020 09:00:00 7.8 C 92 % 6.58 C
974 19-11-2020 09:05:00 7.8 C 92 % 6.58 C
975 19-11-2020 09:10:00 7.8 C 91 % 6.43 C
Sensor: Nr:Datum:Temp:Feuchte:Taupunkt:
Aussen-T/F 976 19-11-2020 09:15:00 7.7 C 91 % 6.33 C
977 19-11-2020 09:20:00 7.7 C 91 % 6.33 C
978 19-11-2020 09:25:00 7.6 C 92 % 6.39 C
979 19-11-2020 09:30:00 7.6 C 92 % 6.39 C
980 19-11-2020 09:35:00 7.6 C 92 % 6.39 C
981 19-11-2020 09:40:00 7.5 C 92 % 6.29 C
982 19-11-2020 09:45:00 7.5 C 92 % 6.29 C
983 19-11-2020 09:50:00 7.6 C 93 % 6.54 C
984 19-11-2020 09:55:00 7.7 C 92 % 6.48 C
985 19-11-2020 10:00:00 7.8 C 92 % 6.58 C
986 19-11-2020 10:05:00 7.9 C 92 % 6.68 C
987 19-11-2020 10:10:00 8 C 91 % 6.62 C
988 19-11-2020 10:15:00 8.1 C 91 % 6.72 C
989 19-11-2020 10:20:00 8.2 C 90 % 6.66 C
990 19-11-2020 10:25:00 8.3 C 90 % 6.76 C
991 19-11-2020 10:30:00 8.4 C 90 % 6.86 C
992 19-11-2020 10:35:00 8.7 C 90 % 7.15 C
993 19-11-2020 10:40:00 8.9 C 89 % 7.19 C
994 19-11-2020 10:45:00 9.2 C 87 % 7.15 C
995 19-11-2020 10:50:00 9.3 C 87 % 7.25 C
996 19-11-2020 10:55:00 9.4 C 87 % 7.35 C
997 19-11-2020 11:00:00 9.6 C 86 % 7.38 C
998 19-11-2020 11:05:00 9.6 C 86 % 7.38 C
999 19-11-2020 11:10:00 9.6 C 86 % 7.38 C
1000 19-11-2020 11:15:00 9.6 C 86 % 7.38 C
Sensor: Nr:Datum:Temp:Feuchte:Taupunkt:
Aussen-T/F 1001 19-11-2020 11:20:00 9.7 C 86 % 7.47 C
1002 19-11-2020 11:25:00 9.7 C 86 % 7.47 C
1003 19-11-2020 11:30:00 9.8 C 86 % 7.57 C
1004 19-11-2020 11:35:00 9.7 C 86 % 7.47 C
1005 19-11-2020 11:40:00 9.7 C 86 % 7.47 C
1006 19-11-2020 11:45:00 9.7 C 87 % 7.64 C
1007 19-11-2020 11:50:00 9.8 C 88 % 7.91 C
1008 19-11-2020 11:55:00 9.7 C 88 % 7.81 C
1009 19-11-2020 12:00:00 9.7 C 88 % 7.81 C
1010 19-11-2020 12:05:00 9.6 C 89 % 7.88 C
1011 19-11-2020 12:10:00 9.6 C 89 % 7.88 C
1012 19-11-2020 12:15:00 9.6 C 90 % 8.04 C
1013 19-11-2020 12:20:00 9.6 C 90 % 8.04 C
1014 19-11-2020 12:25:00 9.5 C 90 % 7.94 C
1015 19-11-2020 12:30:00 9.5 C 91 % 8.11 C
1016 19-11-2020 12:35:00 9.5 C 91 % 8.11 C
1017 19-11-2020 12:40:00 9.5 C 91 % 8.11 C
1018 19-11-2020 12:45:00 9.6 C 91 % 8.21 C
1019 19-11-2020 12:50:00 9.5 C 91 % 8.11 C
1020 19-11-2020 12:55:00 9.6 C 91 % 8.21 C
1021 19-11-2020 13:00:00 9.6 C 90 % 8.04 C
1022 19-11-2020 13:05:00 9.6 C 89 % 7.88 C
1023 19-11-2020 13:10:00 9.7 C 87 % 7.64 C
1024 19-11-2020 13:15:00 9.7 C 86 % 7.47 C
1025 19-11-2020 13:20:00 9.8 C 84 % 7.23 C
Sensor: Nr:Datum:Temp:Feuchte:Taupunkt:
Aussen-T/F 1026 19-11-2020 13:25:00 9.9 C 81 % 6.8 C
1027 19-11-2020 13:30:00 10 C 81 % 6.89 C
1028 19-11-2020 13:35:00 10.1 C 79 % 6.63 C
1029 19-11-2020 13:40:00 10.2 C 78 % 6.54 C
1030 19-11-2020 13:45:00 10.2 C 77 % 6.35 C
1031 19-11-2020 13:50:00 10.3 C 77 % 6.45 C
1032 19-11-2020 13:55:00 10.3 C 78 % 6.64 C
1033 19-11-2020 14:00:00 10.2 C 76 % 6.16 C
1034 19-11-2020 14:05:00 10.3 C 77 % 6.45 C
1035 19-11-2020 14:10:00 10.3 C 77 % 6.45 C
1036 19-11-2020 14:15:00 10.3 C 78 % 6.64 C
1037 19-11-2020 14:20:00 10.4 C 78 % 6.74 C
1038 19-11-2020 14:25:00 10.6 C 78 % 6.93 C
1039 19-11-2020 14:30:00 10.7 C 76 % 6.65 C
1040 19-11-2020 14:35:00 10.7 C 76 % 6.65 C
1041 19-11-2020 14:40:00 10.7 C 73 % 6.07 C
1042 19-11-2020 14:45:00 10.8 C 73 % 6.16 C
1043 19-11-2020 14:50:00 10.8 C 72 % 5.96 C
1044 19-11-2020 14:55:00 10.9 C 69 % 5.44 C
1045 19-11-2020 15:00:00 11 C 71 % 5.95 C
1046 19-11-2020 15:05:00 11.1 C 68 % 5.43 C
1047 19-11-2020 15:10:00 11.2 C 69 % 5.73 C
1048 19-11-2020 15:15:00 11.1 C 71 % 6.05 C
1049 19-11-2020 15:20:00 11.1 C 70 % 5.84 C
1050 19-11-2020 15:25:00 10.9 C 71 % 5.86 C
Sensor: Nr:Datum:Temp:Feuchte:Taupunkt:
Aussen-T/F 1051 19-11-2020 15:30:00 10.9 C 72 % 6.06 C
1052 19-11-2020 15:35:00 10.8 C 73 % 6.16 C
1053 19-11-2020 15:40:00 10.7 C 73 % 6.07 C
1054 19-11-2020 15:45:00 10.7 C 74 % 6.26 C
1055 19-11-2020 15:50:00 10.6 C 75 % 6.36 C
1056 19-11-2020 15:55:00 10.6 C 75 % 6.36 C
1057 19-11-2020 16:00:00 10.4 C 76 % 6.36 C
1058 19-11-2020 16:05:00 10.4 C 77 % 6.55 C
1059 19-11-2020 16:10:00 10.3 C 77 % 6.45 C
1060 19-11-2020 16:15:00 10.3 C 78 % 6.64 C
1061 19-11-2020 16:20:00 10.2 C 78 % 6.54 C
1062 19-11-2020 16:25:00 10.2 C 76 % 6.16 C
1063 19-11-2020 16:30:00 10.3 C 75 % 6.07 C
1064 19-11-2020 16:35:00 10.4 C 74 % 5.97 C
1065 19-11-2020 16:40:00 10.4 C 75 % 6.17 C
1066 19-11-2020 16:45:00 10.3 C 77 % 6.45 C
1067 19-11-2020 16:50:00 10.2 C 78 % 6.54 C
1068 19-11-2020 16:55:00 10 C 80 % 6.71 C
1069 19-11-2020 17:00:00 9.8 C 80 % 6.52 C
1070 19-11-2020 17:05:00 9.7 C 81 % 6.6 C
1071 19-11-2020 17:10:00 9.7 C 82 % 6.78 C
1072 19-11-2020 17:15:00 9.6 C 82 % 6.68 C
1073 19-11-2020 17:20:00 9.5 C 83 % 6.76 C
1074 19-11-2020 17:25:00 9.4 C 84 % 6.84 C
1075 19-11-2020 17:30:00 9.3 C 84 % 6.74 C
Sensor: Nr:Datum:Temp:Feuchte:Taupunkt:
Aussen-T/F 1076 19-11-2020 17:35:00 9.3 C 84 % 6.74 C
1077 19-11-2020 17:40:00 9.3 C 84 % 6.74 C
1078 19-11-2020 17:45:00 9.2 C 84 % 6.64 C
1079 19-11-2020 17:50:00 9.2 C 86 % 6.98 C
1080 19-11-2020 17:55:00 9.2 C 87 % 7.15 C
1081 19-11-2020 18:00:00 9.2 C 87 % 7.15 C
1082 19-11-2020 18:05:00 9.1 C 89 % 7.39 C
1083 19-11-2020 18:10:00 8.9 C 88 % 7.02 C
1084 19-11-2020 18:15:00 8.8 C 89 % 7.09 C
1085 19-11-2020 18:20:00 8.7 C 89 % 6.99 C
1086 19-11-2020 18:25:00 8.7 C 90 % 7.15 C
1087 19-11-2020 18:30:00 8.6 C 90 % 7.06 C
1088 19-11-2020 18:35:00 8.4 C 90 % 6.86 C
1089 19-11-2020 18:40:00 8.4 C 90 % 6.86 C
1090 19-11-2020 18:45:00 8.3 C 90 % 6.76 C
1091 19-11-2020 18:50:00 8.3 C 90 % 6.76 C
1092 19-11-2020 18:55:00 8.2 C 91 % 6.82 C
1093 19-11-2020 19:00:00 8.1 C 91 % 6.72 C
1094 19-11-2020 19:05:00 8.1 C 91 % 6.72 C
1095 19-11-2020 19:10:00 8.1 C 91 % 6.72 C
1096 19-11-2020 19:15:00 8.1 C 91 % 6.72 C
1097 19-11-2020 19:20:00 8.1 C 91 % 6.72 C
1098 19-11-2020 19:25:00 8.1 C 92 % 6.88 C
1099 19-11-2020 19:30:00 8 C 92 % 6.78 C
1100 19-11-2020 19:35:00 8 C 92 % 6.78 C
Sensor: Nr:Datum:Temp:Feuchte:Taupunkt:
Aussen-T/F 1101 19-11-2020 19:40:00 7.9 C 92 % 6.68 C
1102 19-11-2020 19:45:00 7.9 C 92 % 6.68 C
1103 19-11-2020 19:50:00 7.9 C 92 % 6.68 C
1104 19-11-2020 19:55:00 7.9 C 92 % 6.68 C
1105 19-11-2020 20:00:00 7.9 C 92 % 6.68 C
1106 19-11-2020 20:05:00 7.9 C 92 % 6.68 C
1107 19-11-2020 20:10:00 7.9 C 92 % 6.68 C
1108 19-11-2020 20:15:00 7.9 C 93 % 6.84 C
1109 19-11-2020 20:20:00 7.9 C 93 % 6.84 C
1110 19-11-2020 20:25:00 7.9 C 93 % 6.84 C
1111 19-11-2020 20:30:00 7.8 C 93 % 6.74 C
1112 19-11-2020 20:35:00 7.7 C 93 % 6.64 C
1113 19-11-2020 20:40:00 7.6 C 93 % 6.54 C
1114 19-11-2020 20:45:00 7.4 C 93 % 6.34 C
1115 19-11-2020 20:50:00 7.3 C 93 % 6.25 C
1116 19-11-2020 20:55:00 7.2 C 93 % 6.15 C
1117 19-11-2020 21:00:00 7 C 93 % 5.95 C
1118 19-11-2020 21:05:00 6.9 C 93 % 5.85 C
1119 19-11-2020 21:10:00 6.8 C 93 % 5.75 C
1120 19-11-2020 21:15:00 6.8 C 93 % 5.75 C
1121 19-11-2020 21:20:00 6.8 C 93 % 5.75 C
1122 19-11-2020 21:25:00 6.7 C 94 % 5.8 C
1123 19-11-2020 21:30:00 6.7 C 94 % 5.8 C
1124 19-11-2020 21:35:00 6.6 C 94 % 5.71 C
1125 19-11-2020 21:40:00 6.6 C 94 % 5.71 C
Sensor: Nr:Datum:Temp:Feuchte:Taupunkt:
Aussen-T/F 1126 19-11-2020 21:45:00 6.4 C 93 % 5.35 C
1127 19-11-2020 21:50:00 6.3 C 93 % 5.25 C
1128 19-11-2020 21:55:00 6.2 C 94 % 5.31 C
1129 19-11-2020 22:00:00 6.1 C 93 % 5.06 C
1130 19-11-2020 22:05:00 5.9 C 93 % 4.86 C
1131 19-11-2020 22:10:00 5.8 C 93 % 4.76 C
1132 19-11-2020 22:15:00 5.8 C 94 % 4.91 C
1133 19-11-2020 22:20:00 5.7 C 94 % 4.81 C
1134 19-11-2020 22:25:00 5.6 C 94 % 4.71 C
1135 19-11-2020 22:30:00 5.4 C 94 % 4.51 C
1136 19-11-2020 22:35:00 5.3 C 94 % 4.41 C
1137 19-11-2020 22:40:00 5.3 C 94 % 4.41 C
1138 19-11-2020 22:45:00 5.3 C 94 % 4.41 C
1139 19-11-2020 22:50:00 5.3 C 94 % 4.41 C
1140 19-11-2020 22:55:00 5.3 C 95 % 4.57 C
1141 19-11-2020 23:00:00 5.4 C 95 % 4.66 C
1142 19-11-2020 23:05:00 5.4 C 95 % 4.66 C
1143 19-11-2020 23:10:00 5.5 C 95 % 4.76 C
1144 19-11-2020 23:15:00 5.6 C 95 % 4.86 C
1145 19-11-2020 23:20:00 5.6 C 95 % 4.86 C
1146 19-11-2020 23:25:00 5.6 C 95 % 4.86 C
1147 19-11-2020 23:30:00 5.4 C 95 % 4.66 C
1148 19-11-2020 23:35:00 5.3 C 95 % 4.57 C
1149 19-11-2020 23:40:00 5.3 C 95 % 4.57 C
1150 19-11-2020 23:45:00 5.3 C 95 % 4.57 C
Sensor: Nr:Datum:Temp:Feuchte:Taupunkt:
Aussen-T/F 1151 19-11-2020 23:50:00 5.3 C 95 % 4.57 C
1152 19-11-2020 23:55:00 5.3 C 95 % 4.57 C
1153 20-11-2020 00:00:00 5.2 C 95 % 4.47 C
1154 20-11-2020 00:05:00 5.1 C 95 % 4.37 C
1155 20-11-2020 00:10:00 5.1 C 95 % 4.37 C
1156 20-11-2020 00:15:00 5.1 C 95 % 4.37 C
1157 20-11-2020 00:20:00 5.1 C 95 % 4.37 C
1158 20-11-2020 00:25:00 5.2 C 95 % 4.47 C
1159 20-11-2020 00:30:00 5.3 C 95 % 4.57 C
1160 20-11-2020 00:35:00 5.4 C 95 % 4.66 C
1161 20-11-2020 00:40:00 5.4 C 95 % 4.66 C
1162 20-11-2020 00:45:00 5.4 C 95 % 4.66 C
1163 20-11-2020 00:50:00 5.4 C 95 % 4.66 C
1164 20-11-2020 00:55:00 5.4 C 94 % 4.51 C
1165 20-11-2020 01:00:00 5.4 C 94 % 4.51 C
1166 20-11-2020 01:05:00 5.3 C 94 % 4.41 C
1167 20-11-2020 01:10:00 5.3 C 94 % 4.41 C
1168 20-11-2020 01:15:00 5.3 C 94 % 4.41 C
1169 20-11-2020 01:20:00 5.3 C 94 % 4.41 C
1170 20-11-2020 01:25:00 5.1 C 93 % 4.06 C
1171 20-11-2020 01:30:00 4.9 C 93 % 3.87 C
1172 20-11-2020 01:35:00 4.8 C 93 % 3.77 C
1173 20-11-2020 01:40:00 4.8 C 93 % 3.77 C
1174 20-11-2020 01:45:00 4.7 C 93 % 3.67 C
1175 20-11-2020 01:50:00 4.7 C 93 % 3.67 C
Sensor: Nr:Datum:Temp:Feuchte:Taupunkt:
Aussen-T/F 1176 20-11-2020 01:55:00 4.6 C 94 % 3.72 C
1177 20-11-2020 02:00:00 4.6 C 94 % 3.72 C
1178 20-11-2020 02:05:00 4.6 C 94 % 3.72 C
1179 20-11-2020 02:10:00 4.6 C 94 % 3.72 C
1180 20-11-2020 02:15:00 4.7 C 94 % 3.82 C
1181 20-11-2020 02:20:00 4.7 C 94 % 3.82 C
1182 20-11-2020 02:25:00 4.7 C 94 % 3.82 C
1183 20-11-2020 02:30:00 4.7 C 94 % 3.82 C
1184 20-11-2020 02:35:00 4.6 C 94 % 3.72 C
1185 20-11-2020 02:40:00 4.4 C 93 % 3.37 C
1186 20-11-2020 02:45:00 4.2 C 93 % 3.17 C
1187 20-11-2020 02:50:00 4.1 C 93 % 3.07 C
1188 20-11-2020 02:55:00 3.8 C 93 % 2.77 C
1189 20-11-2020 03:00:00 3.6 C 93 % 2.58 C
1190 20-11-2020 03:05:00 3.4 C 93 % 2.38 C
1191 20-11-2020 03:10:00 3.3 C 93 % 2.28 C
1192 20-11-2020 03:15:00 3.2 C 93 % 2.18 C
1193 20-11-2020 03:20:00 3.1 C 93 % 2.08 C
1194 20-11-2020 03:25:00 2.9 C 93 % 1.88 C
1195 20-11-2020 03:30:00 2.8 C 93 % 1.78 C
1196 20-11-2020 03:35:00 2.8 C 94 % 1.93 C
1197 20-11-2020 03:40:00 2.8 C 94 % 1.93 C
1198 20-11-2020 03:45:00 2.7 C 94 % 1.83 C
1199 20-11-2020 03:50:00 2.7 C 94 % 1.83 C
1200 20-11-2020 03:55:00 2.8 C 94 % 1.93 C
Sensor: Nr:Datum:Temp:Feuchte:Taupunkt:
Aussen-T/F 1201 20-11-2020 04:00:00 2.8 C 94 % 1.93 C
1202 20-11-2020 04:05:00 2.7 C 94 % 1.83 C
1203 20-11-2020 04:10:00 2.7 C 94 % 1.83 C
1204 20-11-2020 04:15:00 2.6 C 94 % 1.73 C
1205 20-11-2020 04:20:00 2.4 C 94 % 1.54 C
1206 20-11-2020 04:25:00 2.4 C 94 % 1.54 C
1207 20-11-2020 04:30:00 2.3 C 94 % 1.44 C
1208 20-11-2020 04:35:00 2.3 C 95 % 1.58 C
1209 20-11-2020 04:40:00 2.4 C 95 % 1.68 C
1210 20-11-2020 04:45:00 2.4 C 95 % 1.68 C
1211 20-11-2020 04:50:00 2.4 C 95 % 1.68 C
1212 20-11-2020 04:55:00 2.5 C 95 % 1.78 C
1213 20-11-2020 05:00:00 2.6 C 95 % 1.88 C
1214 20-11-2020 05:05:00 2.7 C 95 % 1.98 C
1215 20-11-2020 05:10:00 2.8 C 96 % 2.23 C
1216 20-11-2020 05:15:00 2.9 C 96 % 2.33 C
1217 20-11-2020 05:20:00 3 C 96 % 2.43 C
1218 20-11-2020 05:25:00 2.9 C 96 % 2.33 C
1219 20-11-2020 05:30:00 2.9 C 95 % 2.18 C
1220 20-11-2020 05:35:00 2.8 C 95 % 2.08 C
1221 20-11-2020 05:40:00 2.8 C 95 % 2.08 C
1222 20-11-2020 05:45:00 2.8 C 95 % 2.08 C
1223 20-11-2020 05:50:00 2.8 C 96 % 2.23 C
1224 20-11-2020 05:55:00 2.9 C 96 % 2.33 C
1225 20-11-2020 06:00:00 3 C 96 % 2.43 C
Sensor: Nr:Datum:Temp:Feuchte:Taupunkt:
Aussen-T/F 1226 20-11-2020 06:05:00 3.1 C 96 % 2.53 C
1227 20-11-2020 06:10:00 3.1 C 96 % 2.53 C
1228 20-11-2020 06:15:00 3.1 C 96 % 2.53 C
1229 20-11-2020 06:20:00 3.2 C 96 % 2.63 C
1230 20-11-2020 06:25:00 3.2 C 96 % 2.63 C
1231 20-11-2020 06:30:00 3.2 C 96 % 2.63 C
1232 20-11-2020 06:35:00 3.2 C 96 % 2.63 C
1233 20-11-2020 06:40:00 3.3 C 96 % 2.72 C
1234 20-11-2020 06:45:00 3.3 C 96 % 2.72 C
1235 20-11-2020 06:50:00 3.4 C 96 % 2.82 C
1236 20-11-2020 06:55:00 3.5 C 96 % 2.92 C
1237 20-11-2020 07:00:00 3.5 C 96 % 2.92 C
1238 20-11-2020 07:05:00 3.6 C 96 % 3.02 C
1239 20-11-2020 07:10:00 3.6 C 96 % 3.02 C
1240 20-11-2020 07:15:00 3.6 C 96 % 3.02 C
1241 20-11-2020 07:20:00 3.6 C 96 % 3.02 C
1242 20-11-2020 07:25:00 3.6 C 96 % 3.02 C
1243 20-11-2020 07:30:00 3.7 C 96 % 3.12 C
1244 20-11-2020 07:35:00 3.7 C 96 % 3.12 C
1245 20-11-2020 07:40:00 3.7 C 96 % 3.12 C
1246 20-11-2020 07:45:00 3.7 C 96 % 3.12 C
1247 20-11-2020 07:50:00 3.7 C 96 % 3.12 C
1248 20-11-2020 07:55:00 3.8 C 96 % 3.22 C
1249 20-11-2020 08:00:00 3.8 C 96 % 3.22 C
1250 20-11-2020 08:05:00 3.8 C 96 % 3.22 C
Sensor: Nr:Datum:Temp:Feuchte:Taupunkt:
Aussen-T/F 1251 20-11-2020 08:10:00 3.8 C 96 % 3.22 C
1252 20-11-2020 08:15:00 3.8 C 96 % 3.22 C
1253 20-11-2020 08:20:00 3.8 C 96 % 3.22 C
1254 20-11-2020 08:25:00 3.8 C 96 % 3.22 C
1255 20-11-2020 08:30:00 3.9 C 96 % 3.32 C
1256 20-11-2020 08:35:00 3.9 C 96 % 3.32 C
1257 20-11-2020 08:40:00 3.9 C 96 % 3.32 C
1258 20-11-2020 08:45:00 4 C 96 % 3.42 C
1259 20-11-2020 08:50:00 4.1 C 96 % 3.52 C
1260 20-11-2020 08:55:00 4.1 C 96 % 3.52 C
1261 20-11-2020 09:00:00 4.1 C 96 % 3.52 C
1262 20-11-2020 09:05:00 4.2 C 96 % 3.62 C
1263 20-11-2020 09:10:00 4.2 C 96 % 3.62 C
1264 20-11-2020 09:15:00 4.2 C 96 % 3.62 C
1265 20-11-2020 09:20:00 4.3 C 96 % 3.72 C
1266 20-11-2020 09:25:00 4.3 C 96 % 3.72 C
1267 20-11-2020 09:30:00 4.3 C 96 % 3.72 C
1268 20-11-2020 09:35:00 4.4 C 96 % 3.82 C
1269 20-11-2020 09:40:00 4.4 C 96 % 3.82 C
1270 20-11-2020 09:45:00 4.5 C 96 % 3.92 C
1271 20-11-2020 09:50:00 4.6 C 96 % 4.02 C
1272 20-11-2020 09:55:00 4.6 C 96 % 4.02 C
1273 20-11-2020 10:00:00 4.7 C 96 % 4.12 C
1274 20-11-2020 10:05:00 4.7 C 95 % 3.97 C
1275 20-11-2020 10:10:00 4.8 C 96 % 4.22 C
Sensor: Nr:Datum:Temp:Feuchte:Taupunkt:
Aussen-T/F 1276 20-11-2020 10:15:00 4.9 C 95 % 4.17 C
1277 20-11-2020 10:20:00 4.9 C 95 % 4.17 C
1278 20-11-2020 10:25:00 5.1 C 95 % 4.37 C
1279 20-11-2020 10:30:00 5.1 C 95 % 4.37 C
1280 20-11-2020 10:35:00 5.2 C 95 % 4.47 C
1281 20-11-2020 10:40:00 5.2 C 95 % 4.47 C
1282 20-11-2020 10:45:00 5.3 C 95 % 4.57 C
1283 20-11-2020 10:50:00 5.4 C 94 % 4.51 C
1284 20-11-2020 10:55:00 5.5 C 95 % 4.76 C
1285 20-11-2020 11:00:00 5.6 C 94 % 4.71 C
1286 20-11-2020 11:05:00 5.7 C 94 % 4.81 C
1287 20-11-2020 11:10:00 5.7 C 94 % 4.81 C
1288 20-11-2020 11:15:00 5.7 C 93 % 4.66 C
1289 20-11-2020 11:20:00 5.8 C 93 % 4.76 C
1290 20-11-2020 11:25:00 5.9 C 93 % 4.86 C
1291 20-11-2020 11:30:00 5.9 C 93 % 4.86 C
1292 20-11-2020 11:35:00 5.9 C 93 % 4.86 C
1293 20-11-2020 11:40:00 6 C 93 % 4.96 C
1294 20-11-2020 11:45:00 6.1 C 92 % 4.9 C
1295 20-11-2020 11:50:00 6.1 C 92 % 4.9 C
1296 20-11-2020 11:55:00 6.1 C 92 % 4.9 C
1297 20-11-2020 12:00:00 6.2 C 92 % 5 C
1298 20-11-2020 12:05:00 6.2 C 92 % 5 C
1299 20-11-2020 12:10:00 6.3 C 92 % 5.1 C
1300 20-11-2020 12:15:00 6.3 C 91 % 4.94 C
Sensor: Nr:Datum:Temp:Feuchte:Taupunkt:
Aussen-T/F 1301 20-11-2020 12:20:00 6.4 C 91 % 5.04 C
1302 20-11-2020 12:25:00 6.4 C 91 % 5.04 C
1303 20-11-2020 12:30:00 6.5 C 91 % 5.14 C
1304 20-11-2020 12:35:00 6.6 C 91 % 5.24 C
1305 20-11-2020 12:40:00 6.6 C 91 % 5.24 C
1306 20-11-2020 12:45:00 6.6 C 90 % 5.08 C
1307 20-11-2020 12:50:00 6.7 C 90 % 5.18 C
1308 20-11-2020 12:55:00 6.7 C 90 % 5.18 C
1309 20-11-2020 13:00:00 6.8 C 90 % 5.28 C
1310 20-11-2020 13:05:00 6.8 C 90 % 5.28 C
1311 20-11-2020 13:10:00 6.7 C 90 % 5.18 C
1312 20-11-2020 13:15:00 6.7 C 90 % 5.18 C
1313 20-11-2020 13:20:00 6.7 C 90 % 5.18 C
1314 20-11-2020 13:25:00 6.7 C 90 % 5.18 C
1315 20-11-2020 13:30:00 6.7 C 90 % 5.18 C
1316 20-11-2020 13:35:00 6.8 C 90 % 5.28 C
1317 20-11-2020 13:40:00 6.8 C 90 % 5.28 C
1318 20-11-2020 13:45:00 6.8 C 90 % 5.28 C
1319 20-11-2020 13:50:00 6.8 C 90 % 5.28 C
1320 20-11-2020 13:55:00 6.8 C 90 % 5.28 C
1321 20-11-2020 14:00:00 6.9 C 90 % 5.38 C
1322 20-11-2020 14:05:00 6.9 C 90 % 5.38 C
1323 20-11-2020 14:10:00 6.8 C 87 % 4.79 C
1324 20-11-2020 14:15:00 6.7 C 86 % 4.53 C
1325 20-11-2020 14:20:00 6.6 C 86 % 4.43 C
Sensor: Nr:Datum:Temp:Feuchte:Taupunkt:
Aussen-T/F 1326 20-11-2020 14:25:00 6.6 C 86 % 4.43 C
1327 20-11-2020 14:30:00 6.5 C 85 % 4.17 C
1328 20-11-2020 14:35:00 6.5 C 85 % 4.17 C
1329 20-11-2020 14:40:00 6.4 C 85 % 4.07 C
1330 20-11-2020 14:45:00 6.5 C 85 % 4.17 C
1331 20-11-2020 14:50:00 6.5 C 84 % 4 C
1332 20-11-2020 14:55:00 6.6 C 85 % 4.26 C
1333 20-11-2020 15:00:00 6.6 C 84 % 4.1 C
1334 20-11-2020 15:05:00 6.7 C 84 % 4.19 C
1335 20-11-2020 15:10:00 6.7 C 84 % 4.19 C
1336 20-11-2020 15:15:00 6.8 C 85 % 4.46 C
1337 20-11-2020 15:20:00 6.8 C 84 % 4.29 C
1338 20-11-2020 15:25:00 6.8 C 84 % 4.29 C
1339 20-11-2020 15:30:00 6.8 C 84 % 4.29 C
1340 20-11-2020 15:35:00 6.8 C 84 % 4.29 C
1341 20-11-2020 15:40:00 6.8 C 84 % 4.29 C
1342 20-11-2020 15:45:00 6.8 C 84 % 4.29 C
1343 20-11-2020 15:50:00 6.9 C 84 % 4.39 C
1344 20-11-2020 15:55:00 6.9 C 85 % 4.56 C
1345 20-11-2020 16:00:00 6.9 C 85 % 4.56 C
1346 20-11-2020 16:05:00 7 C 85 % 4.66 C
1347 20-11-2020 16:10:00 7 C 85 % 4.66 C
1348 20-11-2020 16:15:00 7 C 85 % 4.66 C
1349 20-11-2020 16:20:00 7 C 85 % 4.66 C
1350 20-11-2020 16:25:00 6.9 C 86 % 4.72 C
Sensor: Nr:Datum:Temp:Feuchte:Taupunkt:
Aussen-T/F 1351 20-11-2020 16:30:00 6.9 C 86 % 4.72 C
1352 20-11-2020 16:35:00 6.8 C 86 % 4.63 C
1353 20-11-2020 16:40:00 6.8 C 86 % 4.63 C
1354 20-11-2020 16:45:00 6.7 C 86 % 4.53 C
1355 20-11-2020 16:50:00 6.5 C 86 % 4.33 C
1356 20-11-2020 16:55:00 6.4 C 87 % 4.4 C
1357 20-11-2020 17:00:00 6.3 C 87 % 4.3 C
1358 20-11-2020 17:05:00 6.2 C 88 % 4.36 C
1359 20-11-2020 17:10:00 6.1 C 88 % 4.27 C
1360 20-11-2020 17:15:00 6 C 88 % 4.17 C
1361 20-11-2020 17:20:00 5.9 C 88 % 4.07 C
1362 20-11-2020 17:25:00 5.8 C 88 % 3.97 C
1363 20-11-2020 17:30:00 5.7 C 88 % 3.87 C
1364 20-11-2020 17:35:00 5.6 C 88 % 3.77 C
1365 20-11-2020 17:40:00 5.4 C 88 % 3.58 C
1366 20-11-2020 17:45:00 5.3 C 88 % 3.48 C
1367 20-11-2020 17:50:00 5.1 C 88 % 3.28 C
1368 20-11-2020 17:55:00 4.8 C 88 % 2.99 C
1369 20-11-2020 18:00:00 4.6 C 88 % 2.79 C
1370 20-11-2020 18:05:00 4.4 C 89 % 2.75 C
1371 20-11-2020 18:10:00 4.2 C 89 % 2.55 C
1372 20-11-2020 18:15:00 4.1 C 89 % 2.45 C
1373 20-11-2020 18:20:00 3.9 C 90 % 2.41 C
1374 20-11-2020 18:25:00 3.8 C 90 % 2.31 C
1375 20-11-2020 18:30:00 3.7 C 90 % 2.22 C
Sensor: Nr:Datum:Temp:Feuchte:Taupunkt:
Aussen-T/F 1376 20-11-2020 18:35:00 3.4 C 90 % 1.92 C
1377 20-11-2020 18:40:00 3.3 C 90 % 1.82 C
1378 20-11-2020 18:45:00 3.2 C 91 % 1.88 C
1379 20-11-2020 18:50:00 3.2 C 91 % 1.88 C
1380 20-11-2020 18:55:00 3.1 C 91 % 1.78 C
1381 20-11-2020 19:00:00 2.9 C 91 % 1.58 C
1382 20-11-2020 19:05:00 2.8 C 91 % 1.48 C
1383 20-11-2020 19:10:00 2.7 C 92 % 1.53 C
1384 20-11-2020 19:15:00 2.6 C 92 % 1.43 C
1385 20-11-2020 19:20:00 2.5 C 92 % 1.34 C
1386 20-11-2020 19:25:00 2.4 C 92 % 1.24 C
1387 20-11-2020 19:30:00 2.3 C 93 % 1.29 C
1388 20-11-2020 19:35:00 2.2 C 93 % 1.19 C
1389 20-11-2020 19:40:00 2.1 C 92 % 0.94 C
1390 20-11-2020 19:45:00 2 C 93 % 0.99 C
1391 20-11-2020 19:50:00 1.9 C 93 % 0.89 C
1392 20-11-2020 19:55:00 1.8 C 93 % 0.79 C
1393 20-11-2020 20:00:00 1.7 C 93 % 0.69 C
1394 20-11-2020 20:05:00 1.6 C 93 % 0.59 C
1395 20-11-2020 20:10:00 1.4 C 93 % 0.4 C
1396 20-11-2020 20:15:00 1.4 C 93 % 0.4 C
1397 20-11-2020 20:20:00 1.3 C 93 % 0.3 C
1398 20-11-2020 20:25:00 1.3 C 94 % 0.44 C
1399 20-11-2020 20:30:00 1.2 C 94 % 0.34 C
1400 20-11-2020 20:35:00 1.2 C 94 % 0.34 C
Sensor: Nr:Datum:Temp:Feuchte:Taupunkt:
Aussen-T/F 1401 20-11-2020 20:40:00 1.1 C 94 % 0.24 C
1402 20-11-2020 20:45:00 1.2 C 94 % 0.34 C
1403 20-11-2020 20:50:00 1.2 C 94 % 0.34 C
1404 20-11-2020 20:55:00 1.2 C 94 % 0.34 C
1405 20-11-2020 21:00:00 1.1 C 94 % 0.24 C
1406 20-11-2020 21:05:00 1 C 94 % 0.15 C
1407 20-11-2020 21:10:00 0.9 C 94 % 0.05 C
1408 20-11-2020 21:15:00 0.8 C 94 % -0.05 C
1409 20-11-2020 21:20:00 0.8 C 94 % -0.05 C
1410 20-11-2020 21:25:00 0.7 C 94 % -0.15 C
1411 20-11-2020 21:30:00 0.7 C 94 % -0.15 C
1412 20-11-2020 21:35:00 0.7 C 95 % -0.01 C
1413 20-11-2020 21:40:00 0.7 C 95 % -0.01 C
1414 20-11-2020 21:45:00 0.7 C 95 % -0.01 C
1415 20-11-2020 21:50:00 0.6 C 95 % -0.11 C
1416 20-11-2020 21:55:00 0.5 C 95 % -0.21 C
1417 20-11-2020 22:00:00 0.4 C 95 % -0.31 C
1418 20-11-2020 22:05:00 0.4 C 95 % -0.31 C
1419 20-11-2020 22:10:00 0.4 C 95 % -0.31 C
1420 20-11-2020 22:15:00 0.3 C 95 % -0.4 C
1421 20-11-2020 22:20:00 0.3 C 95 % -0.4 C
1422 20-11-2020 22:25:00 0.3 C 95 % -0.4 C
1423 20-11-2020 22:30:00 0.3 C 95 % -0.4 C
1424 20-11-2020 22:35:00 0.2 C 95 % -0.5 C
1425 20-11-2020 22:40:00 0.2 C 95 % -0.5 C
Sensor: Nr:Datum:Temp:Feuchte:Taupunkt:
Aussen-T/F 1426 20-11-2020 22:45:00 0.2 C 95 % -0.5 C
1427 20-11-2020 22:50:00 0.3 C 95 % -0.4 C
1428 20-11-2020 22:55:00 0.3 C 95 % -0.4 C
1429 20-11-2020 23:00:00 0.4 C 95 % -0.31 C
1430 20-11-2020 23:05:00 0.4 C 95 % -0.31 C
1431 20-11-2020 23:10:00 0.4 C 95 % -0.31 C
1432 20-11-2020 23:15:00 0.3 C 95 % -0.4 C
1433 20-11-2020 23:20:00 0.3 C 95 % -0.4 C
1434 20-11-2020 23:25:00 0.2 C 95 % -0.5 C
1435 20-11-2020 23:30:00 0.2 C 95 % -0.5 C
1436 20-11-2020 23:35:00 0.2 C 95 % -0.5 C
1437 20-11-2020 23:40:00 0.2 C 95 % -0.5 C
1438 20-11-2020 23:45:00 0.2 C 95 % -0.5 C
1439 20-11-2020 23:50:00 0.2 C 95 % -0.5 C
1440 20-11-2020 23:55:00 0.3 C 96 % -0.26 C
1441 21-11-2020 00:00:00 0.3 C 96 % -0.26 C
1442 21-11-2020 00:05:00 0.3 C 96 % -0.26 C
1443 21-11-2020 00:10:00 0.3 C 96 % -0.26 C
1444 21-11-2020 00:15:00 0.3 C 96 % -0.26 C
1445 21-11-2020 00:20:00 0.3 C 96 % -0.26 C
1446 21-11-2020 00:25:00 0.3 C 96 % -0.26 C
1447 21-11-2020 00:30:00 0.2 C 96 % -0.36 C
1448 21-11-2020 00:35:00 0.2 C 95 % -0.5 C
1449 21-11-2020 00:40:00 0.2 C 95 % -0.5 C
1450 21-11-2020 00:45:00 0.2 C 95 % -0.5 C
Sensor: Nr:Datum:Temp:Feuchte:Taupunkt:
Aussen-T/F 1451 21-11-2020 00:50:00 0.2 C 96 % -0.36 C
1452 21-11-2020 00:55:00 0.2 C 96 % -0.36 C
1453 21-11-2020 01:00:00 0.3 C 96 % -0.26 C
1454 21-11-2020 01:05:00 0.3 C 96 % -0.26 C
1455 21-11-2020 01:10:00 0.3 C 96 % -0.26 C
1456 21-11-2020 01:15:00 0.2 C 96 % -0.36 C
1457 21-11-2020 01:20:00 0.2 C 96 % -0.36 C
1458 21-11-2020 01:25:00 0.2 C 96 % -0.36 C
1459 21-11-2020 01:30:00 0.2 C 96 % -0.36 C
1460 21-11-2020 01:35:00 0.2 C 96 % -0.36 C
1461 21-11-2020 01:40:00 0.3 C 96 % -0.26 C
1462 21-11-2020 01:45:00 0.3 C 96 % -0.26 C
1463 21-11-2020 01:50:00 0.3 C 96 % -0.26 C
1464 21-11-2020 01:55:00 0.3 C 96 % -0.26 C
1465 21-11-2020 02:00:00 0.2 C 96 % -0.36 C
1466 21-11-2020 02:05:00 0.2 C 96 % -0.36 C
1467 21-11-2020 02:10:00 0.2 C 96 % -0.36 C
1468 21-11-2020 02:15:00 0.2 C 96 % -0.36 C
1469 21-11-2020 02:20:00 0.2 C 96 % -0.36 C
1470 21-11-2020 02:25:00 0.2 C 96 % -0.36 C
1471 21-11-2020 02:30:00 0.2 C 96 % -0.36 C
1472 21-11-2020 02:35:00 0.2 C 96 % -0.36 C
1473 21-11-2020 02:40:00 0.2 C 96 % -0.36 C
1474 21-11-2020 02:45:00 0.2 C 96 % -0.36 C
1475 21-11-2020 02:50:00 0.2 C 96 % -0.36 C
Sensor: Nr:Datum:Temp:Feuchte:Taupunkt:
Aussen-T/F 1476 21-11-2020 02:55:00 0.2 C 96 % -0.36 C
1477 21-11-2020 03:00:00 0.3 C 96 % -0.26 C
1478 21-11-2020 03:05:00 0.3 C 96 % -0.26 C
1479 21-11-2020 03:10:00 0.3 C 96 % -0.26 C
1480 21-11-2020 03:15:00 0.3 C 96 % -0.26 C
1481 21-11-2020 03:20:00 0.3 C 96 % -0.26 C
1482 21-11-2020 03:25:00 0.2 C 96 % -0.36 C
1483 21-11-2020 03:30:00 0.2 C 96 % -0.36 C
1484 21-11-2020 03:35:00 0.2 C 96 % -0.36 C
1485 21-11-2020 03:40:00 0.2 C 96 % -0.36 C
1486 21-11-2020 03:45:00 0.2 C 96 % -0.36 C
1487 21-11-2020 03:50:00 0.2 C 96 % -0.36 C
1488 21-11-2020 03:55:00 0.2 C 96 % -0.36 C
1489 21-11-2020 04:00:00 0.1 C 96 % -0.46 C
1490 21-11-2020 04:05:00 0.1 C 96 % -0.46 C
1491 21-11-2020 04:10:00 0.1 C 96 % -0.46 C
1492 21-11-2020 04:15:00 0.1 C 96 % -0.46 C
1493 21-11-2020 04:20:00 0.1 C 96 % -0.46 C
1494 21-11-2020 04:25:00 0.1 C 96 % -0.46 C
1495 21-11-2020 04:30:00 0.1 C 96 % -0.46 C
1496 21-11-2020 04:35:00 0.2 C 96 % -0.36 C
1497 21-11-2020 04:40:00 0.2 C 96 % -0.36 C
1498 21-11-2020 04:45:00 0.2 C 96 % -0.36 C
1499 21-11-2020 04:50:00 0.2 C 96 % -0.36 C
1500 21-11-2020 04:55:00 0.2 C 96 % -0.36 C
Sensor: Nr:Datum:Temp:Feuchte:Taupunkt:
Aussen-T/F 1501 21-11-2020 05:00:00 0.2 C 96 % -0.36 C
1502 21-11-2020 05:05:00 0.2 C 96 % -0.36 C
1503 21-11-2020 05:10:00 0.2 C 96 % -0.36 C
1504 21-11-2020 05:15:00 0.2 C 96 % -0.36 C
1505 21-11-2020 05:20:00 0.2 C 97 % -0.22 C
1506 21-11-2020 05:25:00 0.2 C 96 % -0.36 C
1507 21-11-2020 05:30:00 0.2 C 96 % -0.36 C
1508 21-11-2020 05:35:00 0.1 C 96 % -0.46 C
1509 21-11-2020 05:40:00 0.1 C 96 % -0.46 C
1510 21-11-2020 05:45:00 0.1 C 96 % -0.46 C
1511 21-11-2020 05:50:00 0.2 C 96 % -0.36 C
1512 21-11-2020 05:55:00 0.2 C 96 % -0.36 C
1513 21-11-2020 06:00:00 0.2 C 96 % -0.36 C
1514 21-11-2020 06:05:00 0.2 C 96 % -0.36 C
1515 21-11-2020 06:10:00 0.2 C 96 % -0.36 C
1516 21-11-2020 06:15:00 0.2 C 96 % -0.36 C
1517 21-11-2020 06:20:00 0.2 C 96 % -0.36 C
1518 21-11-2020 06:25:00 0.2 C 96 % -0.36 C
1519 21-11-2020 06:30:00 0.2 C 96 % -0.36 C
1520 21-11-2020 06:35:00 0.3 C 96 % -0.26 C
1521 21-11-2020 06:40:00 0.3 C 97 % -0.12 C
1522 21-11-2020 06:45:00 0.3 C 97 % -0.12 C
1523 21-11-2020 06:50:00 0.3 C 97 % -0.12 C
1524 21-11-2020 06:55:00 0.3 C 97 % -0.12 C
1525 21-11-2020 07:00:00 0.3 C 97 % -0.12 C
Sensor: Nr:Datum:Temp:Feuchte:Taupunkt:
Aussen-T/F 1526 21-11-2020 07:05:00 0.3 C 97 % -0.12 C
1527 21-11-2020 07:10:00 0.3 C 97 % -0.12 C
1528 21-11-2020 07:15:00 0.3 C 97 % -0.12 C
1529 21-11-2020 07:20:00 0.3 C 97 % -0.12 C
1530 21-11-2020 07:25:00 0.3 C 97 % -0.12 C
1531 21-11-2020 07:30:00 0.3 C 97 % -0.12 C
1532 21-11-2020 07:35:00 0.3 C 97 % -0.12 C
1533 21-11-2020 07:40:00 0.3 C 97 % -0.12 C
1534 21-11-2020 07:45:00 0.3 C 97 % -0.12 C
1535 21-11-2020 07:50:00 0.4 C 97 % -0.02 C
1536 21-11-2020 07:55:00 0.4 C 97 % -0.02 C
1537 21-11-2020 08:00:00 0.4 C 97 % -0.02 C
1538 21-11-2020 08:05:00 0.4 C 97 % -0.02 C
1539 21-11-2020 08:10:00 0.4 C 97 % -0.02 C
1540 21-11-2020 08:15:00 0.5 C 97 % 0.08 C
1541 21-11-2020 08:20:00 0.5 C 97 % 0.08 C
1542 21-11-2020 08:25:00 0.5 C 97 % 0.08 C
1543 21-11-2020 08:30:00 0.6 C 97 % 0.18 C
1544 21-11-2020 08:35:00 0.6 C 97 % 0.18 C
1545 21-11-2020 08:40:00 0.6 C 97 % 0.18 C
1546 21-11-2020 08:45:00 0.6 C 97 % 0.18 C
1547 21-11-2020 08:50:00 0.6 C 97 % 0.18 C
1548 21-11-2020 08:55:00 0.6 C 97 % 0.18 C
1549 21-11-2020 09:00:00 0.7 C 97 % 0.28 C
1550 21-11-2020 09:05:00 0.7 C 97 % 0.28 C
Sensor: Nr:Datum:Temp:Feuchte:Taupunkt:
Aussen-T/F 1551 21-11-2020 09:10:00 0.7 C 97 % 0.28 C
1552 21-11-2020 09:15:00 0.8 C 97 % 0.38 C
1553 21-11-2020 09:20:00 0.9 C 97 % 0.48 C
1554 21-11-2020 09:25:00 1 C 97 % 0.58 C
1555 21-11-2020 09:30:00 1.2 C 97 % 0.78 C
1556 21-11-2020 09:35:00 1.3 C 97 % 0.88 C
1557 21-11-2020 09:40:00 1.4 C 97 % 0.98 C
1558 21-11-2020 09:45:00 1.6 C 97 % 1.18 C
1559 21-11-2020 09:50:00 1.7 C 97 % 1.28 C
1560 21-11-2020 09:55:00 1.7 C 97 % 1.28 C
1561 21-11-2020 10:00:00 1.8 C 97 % 1.38 C
1562 21-11-2020 10:05:00 1.8 C 97 % 1.38 C
1563 21-11-2020 10:10:00 1.9 C 97 % 1.48 C
1564 21-11-2020 10:15:00 2.1 C 97 % 1.67 C
1565 21-11-2020 10:20:00 2.1 C 97 % 1.67 C
1566 21-11-2020 10:25:00 2.2 C 97 % 1.77 C
1567 21-11-2020 10:30:00 2.3 C 97 % 1.87 C
1568 21-11-2020 10:35:00 2.3 C 97 % 1.87 C
1569 21-11-2020 10:40:00 2.3 C 97 % 1.87 C
1570 21-11-2020 10:45:00 2.4 C 97 % 1.97 C
1571 21-11-2020 10:50:00 2.4 C 97 % 1.97 C
1572 21-11-2020 10:55:00 2.5 C 97 % 2.07 C
1573 21-11-2020 11:00:00 2.6 C 97 % 2.17 C
1574 21-11-2020 11:05:00 2.7 C 97 % 2.27 C
1575 21-11-2020 11:10:00 2.8 C 97 % 2.37 C
Sensor: Nr:Datum:Temp:Feuchte:Taupunkt:
Aussen-T/F 1576 21-11-2020 11:15:00 3.1 C 97 % 2.67 C
1577 21-11-2020 11:20:00 3.2 C 97 % 2.77 C
1578 21-11-2020 11:25:00 3.3 C 97 % 2.87 C
1579 21-11-2020 11:30:00 3.5 C 97 % 3.07 C
1580 21-11-2020 11:35:00 3.6 C 97 % 3.17 C
1581 21-11-2020 11:40:00 3.8 C 97 % 3.37 C
1582 21-11-2020 11:45:00 4 C 97 % 3.57 C
1583 21-11-2020 11:50:00 4.1 C 97 % 3.67 C
1584 21-11-2020 11:55:00 4.3 C 97 % 3.87 C
1585 21-11-2020 12:00:00 4.4 C 97 % 3.97 C
1586 21-11-2020 12:05:00 4.6 C 97 % 4.17 C
1587 21-11-2020 12:10:00 4.7 C 97 % 4.27 C
1588 21-11-2020 12:15:00 4.8 C 96 % 4.22 C
1589 21-11-2020 12:20:00 5 C 95 % 4.27 C
1590 21-11-2020 12:25:00 5.2 C 93 % 4.16 C
1591 21-11-2020 12:30:00 5.4 C 90 % 3.89 C
1592 21-11-2020 12:35:00 5.7 C 89 % 4.03 C
1593 21-11-2020 12:40:00 5.9 C 86 % 3.74 C
1594 21-11-2020 12:45:00 6.2 C 84 % 3.7 C
1595 21-11-2020 12:50:00 6.4 C 83 % 3.73 C
1596 21-11-2020 12:55:00 6.6 C 82 % 3.75 C
1597 21-11-2020 13:00:00 6.7 C 80 % 3.5 C
1598 21-11-2020 13:05:00 6.8 C 81 % 3.77 C
1599 21-11-2020 13:10:00 6.8 C 81 % 3.77 C
1600 21-11-2020 13:15:00 6.9 C 79 % 3.52 C
Sensor: Nr:Datum:Temp:Feuchte:Taupunkt:
Aussen-T/F 1601 21-11-2020 13:20:00 7.1 C 79 % 3.71 C
1602 21-11-2020 13:25:00 7.2 C 78 % 3.63 C
1603 21-11-2020 13:30:00 7.3 C 78 % 3.73 C
1604 21-11-2020 13:35:00 7.3 C 77 % 3.54 C
1605 21-11-2020 13:40:00 7.3 C 77 % 3.54 C
1606 21-11-2020 13:45:00 7.4 C 77 % 3.64 C
1607 21-11-2020 13:50:00 7.5 C 77 % 3.74 C
1608 21-11-2020 13:55:00 7.5 C 77 % 3.74 C
1609 21-11-2020 14:00:00 7.6 C 77 % 3.83 C
1610 21-11-2020 14:05:00 7.6 C 76 % 3.65 C
1611 21-11-2020 14:10:00 7.7 C 76 % 3.75 C
1612 21-11-2020 14:15:00 7.8 C 76 % 3.84 C
1613 21-11-2020 14:20:00 7.8 C 75 % 3.65 C
1614 21-11-2020 14:25:00 7.9 C 75 % 3.75 C
1615 21-11-2020 14:30:00 7.9 C 73 % 3.37 C
1616 21-11-2020 14:35:00 7.9 C 73 % 3.37 C
1617 21-11-2020 14:40:00 7.9 C 74 % 3.56 C
1618 21-11-2020 14:45:00 8 C 73 % 3.46 C
1619 21-11-2020 14:50:00 8 C 74 % 3.66 C
1620 21-11-2020 14:55:00 8.1 C 73 % 3.56 C
1621 21-11-2020 15:00:00 8.1 C 74 % 3.75 C
1622 21-11-2020 15:05:00 8 C 73 % 3.46 C
1623 21-11-2020 15:10:00 7.9 C 73 % 3.37 C
1624 21-11-2020 15:15:00 7.9 C 73 % 3.37 C
1625 21-11-2020 15:20:00 7.9 C 72 % 3.17 C
Sensor: Nr:Datum:Temp:Feuchte:Taupunkt:
Aussen-T/F 1626 21-11-2020 15:25:00 8 C 73 % 3.46 C
1627 21-11-2020 15:30:00 8 C 72 % 3.27 C
1628 21-11-2020 15:35:00 8 C 73 % 3.46 C
1629 21-11-2020 15:40:00 8 C 71 % 3.07 C
1630 21-11-2020 15:45:00 8 C 73 % 3.46 C
1631 21-11-2020 15:50:00 8 C 72 % 3.27 C
1632 21-11-2020 15:55:00 8.1 C 72 % 3.37 C
1633 21-11-2020 16:00:00 8.1 C 72 % 3.37 C
1634 21-11-2020 16:05:00 8.1 C 73 % 3.56 C
1635 21-11-2020 16:10:00 8 C 73 % 3.46 C
1636 21-11-2020 16:15:00 8 C 73 % 3.46 C
1637 21-11-2020 16:20:00 8 C 74 % 3.66 C
1638 21-11-2020 16:25:00 7.9 C 74 % 3.56 C
1639 21-11-2020 16:30:00 7.9 C 74 % 3.56 C
1640 21-11-2020 16:35:00 7.8 C 74 % 3.46 C
1641 21-11-2020 16:40:00 7.8 C 75 % 3.65 C
1642 21-11-2020 16:45:00 7.8 C 76 % 3.84 C
1643 21-11-2020 16:50:00 7.7 C 75 % 3.56 C
1644 21-11-2020 16:55:00 7.6 C 76 % 3.65 C
1645 21-11-2020 17:00:00 7.6 C 77 % 3.83 C
1646 21-11-2020 17:05:00 7.5 C 78 % 3.92 C
1647 21-11-2020 17:10:00 7.4 C 79 % 4 C
1648 21-11-2020 17:15:00 7.4 C 80 % 4.18 C
1649 21-11-2020 17:20:00 7.3 C 80 % 4.09 C
1650 21-11-2020 17:25:00 7.2 C 81 % 4.16 C
Sensor: Nr:Datum:Temp:Feuchte:Taupunkt:
Aussen-T/F 1651 21-11-2020 17:30:00 7.2 C 80 % 3.99 C
1652 21-11-2020 17:35:00 7.1 C 80 % 3.89 C
1653 21-11-2020 17:40:00 7.1 C 81 % 4.07 C
1654 21-11-2020 17:45:00 7 C 81 % 3.97 C
1655 21-11-2020 17:50:00 6.9 C 81 % 3.87 C
1656 21-11-2020 17:55:00 6.9 C 82 % 4.05 C
1657 21-11-2020 18:00:00 6.8 C 82 % 3.95 C
1658 21-11-2020 18:05:00 6.6 C 82 % 3.75 C
1659 21-11-2020 18:10:00 6.3 C 82 % 3.46 C
1660 21-11-2020 18:15:00 6.1 C 83 % 3.44 C
1661 21-11-2020 18:20:00 5.8 C 83 % 3.14 C
1662 21-11-2020 18:25:00 5.6 C 84 % 3.12 C
1663 21-11-2020 18:30:00 5.3 C 84 % 2.82 C
1664 21-11-2020 18:35:00 5.2 C 85 % 2.89 C
1665 21-11-2020 18:40:00 5.1 C 86 % 2.96 C
1666 21-11-2020 18:45:00 5 C 86 % 2.86 C
1667 21-11-2020 18:50:00 5 C 87 % 3.02 C
1668 21-11-2020 18:55:00 5 C 87 % 3.02 C
1669 21-11-2020 19:00:00 5 C 87 % 3.02 C
1670 21-11-2020 19:05:00 4.9 C 87 % 2.92 C
1671 21-11-2020 19:10:00 4.9 C 87 % 2.92 C
1672 21-11-2020 19:15:00 4.9 C 87 % 2.92 C
1673 21-11-2020 19:20:00 4.9 C 88 % 3.08 C
1674 21-11-2020 19:25:00 4.9 C 88 % 3.08 C
1675 21-11-2020 19:30:00 4.9 C 88 % 3.08 C
Sensor: Nr:Datum:Temp:Feuchte:Taupunkt:
Aussen-T/F 1676 21-11-2020 19:35:00 4.9 C 88 % 3.08 C
1677 21-11-2020 19:40:00 4.9 C 88 % 3.08 C
1678 21-11-2020 19:45:00 4.9 C 88 % 3.08 C
1679 21-11-2020 19:50:00 4.8 C 88 % 2.99 C
1680 21-11-2020 19:55:00 4.8 C 88 % 2.99 C
1681 21-11-2020 20:00:00 4.7 C 87 % 2.73 C
1682 21-11-2020 20:05:00 4.5 C 88 % 2.69 C
1683 21-11-2020 20:10:00 4.4 C 88 % 2.59 C
1684 21-11-2020 20:15:00 4.2 C 88 % 2.39 C
1685 21-11-2020 20:20:00 4.1 C 88 % 2.3 C
1686 21-11-2020 20:25:00 4 C 89 % 2.36 C
1687 21-11-2020 20:30:00 3.9 C 89 % 2.26 C
1688 21-11-2020 20:35:00 3.9 C 89 % 2.26 C
1689 21-11-2020 20:40:00 3.9 C 89 % 2.26 C
1690 21-11-2020 20:45:00 3.9 C 89 % 2.26 C
1691 21-11-2020 20:50:00 4.1 C 89 % 2.45 C
1692 21-11-2020 20:55:00 4.1 C 89 % 2.45 C
1693 21-11-2020 21:00:00 4.2 C 88 % 2.39 C
1694 21-11-2020 21:05:00 4.3 C 88 % 2.49 C
1695 21-11-2020 21:10:00 4.3 C 88 % 2.49 C
1696 21-11-2020 21:15:00 4.3 C 88 % 2.49 C
1697 21-11-2020 21:20:00 4.2 C 87 % 2.23 C
1698 21-11-2020 21:25:00 4.1 C 88 % 2.3 C
1699 21-11-2020 21:30:00 3.9 C 88 % 2.1 C
1700 21-11-2020 21:35:00 3.9 C 88 % 2.1 C
Sensor: Nr:Datum:Temp:Feuchte:Taupunkt:
Aussen-T/F 1701 21-11-2020 21:40:00 3.9 C 89 % 2.26 C
1702 21-11-2020 21:45:00 3.9 C 89 % 2.26 C
1703 21-11-2020 21:50:00 4.1 C 89 % 2.45 C
1704 21-11-2020 21:55:00 4.2 C 89 % 2.55 C
1705 21-11-2020 22:00:00 4.3 C 89 % 2.65 C
1706 21-11-2020 22:05:00 4.3 C 89 % 2.65 C
1707 21-11-2020 22:10:00 4.4 C 89 % 2.75 C
1708 21-11-2020 22:15:00 4.4 C 88 % 2.59 C
1709 21-11-2020 22:20:00 4.4 C 88 % 2.59 C
1710 21-11-2020 22:25:00 4.6 C 88 % 2.79 C
1711 21-11-2020 22:30:00 4.7 C 88 % 2.89 C
1712 21-11-2020 22:35:00 4.7 C 88 % 2.89 C
1713 21-11-2020 22:40:00 4.7 C 88 % 2.89 C
1714 21-11-2020 22:45:00 4.8 C 88 % 2.99 C
1715 21-11-2020 22:50:00 4.9 C 88 % 3.08 C
1716 21-11-2020 22:55:00 5.1 C 88 % 3.28 C
1717 21-11-2020 23:00:00 5.3 C 87 % 3.32 C
1718 21-11-2020 23:05:00 5.4 C 86 % 3.25 C
1719 21-11-2020 23:10:00 5.4 C 86 % 3.25 C
1720 21-11-2020 23:15:00 5.4 C 86 % 3.25 C
1721 21-11-2020 23:20:00 5.5 C 86 % 3.35 C
1722 21-11-2020 23:25:00 5.5 C 86 % 3.35 C
1723 21-11-2020 23:30:00 5.6 C 86 % 3.45 C
1724 21-11-2020 23:35:00 5.6 C 86 % 3.45 C
1725 21-11-2020 23:40:00 5.6 C 85 % 3.28 C
Sensor: Nr:Datum:Temp:Feuchte:Taupunkt:
Aussen-T/F 1726 21-11-2020 23:45:00 5.7 C 85 % 3.38 C
1727 21-11-2020 23:50:00 5.7 C 85 % 3.38 C
1728 21-11-2020 23:55:00 5.7 C 85 % 3.38 C
1729 22-11-2020 00:00:00 5.7 C 85 % 3.38 C
1730 22-11-2020 00:05:00 5.7 C 85 % 3.38 C
1731 22-11-2020 00:10:00 5.8 C 85 % 3.48 C
1732 22-11-2020 00:15:00 5.8 C 85 % 3.48 C
1733 22-11-2020 00:20:00 5.8 C 85 % 3.48 C
1734 22-11-2020 00:25:00 5.8 C 85 % 3.48 C
1735 22-11-2020 00:30:00 5.8 C 85 % 3.48 C
1736 22-11-2020 00:35:00 5.8 C 85 % 3.48 C
1737 22-11-2020 00:40:00 5.8 C 85 % 3.48 C
1738 22-11-2020 00:45:00 5.8 C 85 % 3.48 C
1739 22-11-2020 00:50:00 5.8 C 85 % 3.48 C
1740 22-11-2020 00:55:00 5.8 C 85 % 3.48 C
1741 22-11-2020 01:00:00 5.8 C 85 % 3.48 C
1742 22-11-2020 01:05:00 5.8 C 85 % 3.48 C
1743 22-11-2020 01:10:00 5.8 C 85 % 3.48 C
1744 22-11-2020 01:15:00 5.9 C 85 % 3.58 C
1745 22-11-2020 01:20:00 5.9 C 85 % 3.58 C
1746 22-11-2020 01:25:00 5.9 C 85 % 3.58 C
1747 22-11-2020 01:30:00 6 C 85 % 3.67 C
1748 22-11-2020 01:35:00 6.1 C 85 % 3.77 C
1749 22-11-2020 01:40:00 6.1 C 85 % 3.77 C
1750 22-11-2020 01:45:00 6.1 C 85 % 3.77 C
Sensor: Nr:Datum:Temp:Feuchte:Taupunkt:
Aussen-T/F 1751 22-11-2020 01:50:00 6.2 C 85 % 3.87 C
1752 22-11-2020 01:55:00 6.2 C 84 % 3.7 C
1753 22-11-2020 02:00:00 6.3 C 84 % 3.8 C
1754 22-11-2020 02:05:00 6.3 C 84 % 3.8 C
1755 22-11-2020 02:10:00 6.3 C 84 % 3.8 C
1756 22-11-2020 02:15:00 6.3 C 84 % 3.8 C
1757 22-11-2020 02:20:00 6.3 C 84 % 3.8 C
1758 22-11-2020 02:25:00 6.3 C 84 % 3.8 C
1759 22-11-2020 02:30:00 6.3 C 84 % 3.8 C
1760 22-11-2020 02:35:00 6.3 C 84 % 3.8 C
1761 22-11-2020 02:40:00 6.3 C 84 % 3.8 C
1762 22-11-2020 02:45:00 6.3 C 84 % 3.8 C
1763 22-11-2020 02:50:00 6.3 C 84 % 3.8 C
1764 22-11-2020 02:55:00 6.3 C 84 % 3.8 C
1765 22-11-2020 03:00:00 6.3 C 84 % 3.8 C
1766 22-11-2020 03:05:00 6.3 C 84 % 3.8 C
1767 22-11-2020 03:10:00 6.3 C 84 % 3.8 C
1768 22-11-2020 03:15:00 6.3 C 84 % 3.8 C
1769 22-11-2020 03:20:00 6.3 C 84 % 3.8 C
1770 22-11-2020 03:25:00 6.3 C 84 % 3.8 C
1771 22-11-2020 03:30:00 6.3 C 83 % 3.63 C
1772 22-11-2020 03:35:00 6.3 C 84 % 3.8 C
1773 22-11-2020 03:40:00 6.3 C 84 % 3.8 C
1774 22-11-2020 03:45:00 6.3 C 84 % 3.8 C
1775 22-11-2020 03:50:00 6.3 C 84 % 3.8 C
Sensor: Nr:Datum:Temp:Feuchte:Taupunkt:
Aussen-T/F 1776 22-11-2020 03:55:00 6.4 C 84 % 3.9 C
1777 22-11-2020 04:00:00 6.4 C 84 % 3.9 C
1778 22-11-2020 04:05:00 6.4 C 83 % 3.73 C
1779 22-11-2020 04:10:00 6.4 C 83 % 3.73 C
1780 22-11-2020 04:15:00 6.5 C 83 % 3.83 C
1781 22-11-2020 04:20:00 6.6 C 83 % 3.92 C
1782 22-11-2020 04:25:00 6.6 C 83 % 3.92 C
1783 22-11-2020 04:30:00 6.6 C 83 % 3.92 C
1784 22-11-2020 04:35:00 6.6 C 83 % 3.92 C
1785 22-11-2020 04:40:00 6.6 C 83 % 3.92 C
1786 22-11-2020 04:45:00 6.6 C 83 % 3.92 C
1787 22-11-2020 04:50:00 6.4 C 83 % 3.73 C
1788 22-11-2020 04:55:00 6.4 C 83 % 3.73 C
1789 22-11-2020 05:00:00 6.4 C 84 % 3.9 C
1790 22-11-2020 05:05:00 6.4 C 84 % 3.9 C
1791 22-11-2020 05:10:00 6.5 C 84 % 4 C
1792 22-11-2020 05:15:00 6.6 C 84 % 4.1 C
1793 22-11-2020 05:20:00 6.6 C 83 % 3.92 C
1794 22-11-2020 05:25:00 6.6 C 84 % 4.1 C
1795 22-11-2020 05:30:00 6.6 C 83 % 3.92 C
1796 22-11-2020 05:35:00 6.7 C 83 % 4.02 C
1797 22-11-2020 05:40:00 6.7 C 83 % 4.02 C
1798 22-11-2020 05:45:00 6.7 C 83 % 4.02 C
1799 22-11-2020 05:50:00 6.7 C 83 % 4.02 C
1800 22-11-2020 05:55:00 6.7 C 83 % 4.02 C
Sensor: Nr:Datum:Temp:Feuchte:Taupunkt:
Aussen-T/F 1801 22-11-2020 06:00:00 6.7 C 84 % 4.19 C
1802 22-11-2020 06:05:00 6.7 C 84 % 4.19 C
1803 22-11-2020 06:10:00 6.8 C 83 % 4.12 C
1804 22-11-2020 06:15:00 6.8 C 84 % 4.29 C
1805 22-11-2020 06:20:00 6.8 C 84 % 4.29 C
1806 22-11-2020 06:25:00 6.7 C 84 % 4.19 C
1807 22-11-2020 06:30:00 6.8 C 84 % 4.29 C
1808 22-11-2020 06:35:00 6.8 C 84 % 4.29 C
1809 22-11-2020 06:40:00 6.8 C 84 % 4.29 C
1810 22-11-2020 06:45:00 6.9 C 84 % 4.39 C
1811 22-11-2020 06:50:00 6.9 C 83 % 4.22 C
1812 22-11-2020 06:55:00 7 C 83 % 4.32 C
1813 22-11-2020 07:00:00 6.9 C 83 % 4.22 C
1814 22-11-2020 07:05:00 6.9 C 83 % 4.22 C
1815 22-11-2020 07:10:00 6.9 C 83 % 4.22 C
1816 22-11-2020 07:15:00 6.9 C 84 % 4.39 C
1817 22-11-2020 07:20:00 6.9 C 84 % 4.39 C
1818 22-11-2020 07:25:00 6.9 C 84 % 4.39 C
1819 22-11-2020 07:30:00 6.9 C 84 % 4.39 C
1820 22-11-2020 07:35:00 6.9 C 84 % 4.39 C
1821 22-11-2020 07:40:00 6.9 C 84 % 4.39 C
1822 22-11-2020 07:45:00 6.9 C 84 % 4.39 C
1823 22-11-2020 07:50:00 6.8 C 84 % 4.29 C
1824 22-11-2020 07:55:00 6.8 C 84 % 4.29 C
1825 22-11-2020 08:00:00 6.8 C 84 % 4.29 C
Sensor: Nr:Datum:Temp:Feuchte:Taupunkt:
Aussen-T/F 1826 22-11-2020 08:05:00 6.8 C 84 % 4.29 C
1827 22-11-2020 08:10:00 6.8 C 85 % 4.46 C
1828 22-11-2020 08:15:00 6.8 C 85 % 4.46 C
1829 22-11-2020 08:20:00 6.9 C 85 % 4.56 C
1830 22-11-2020 08:25:00 6.9 C 84 % 4.39 C
1831 22-11-2020 08:30:00 6.9 C 84 % 4.39 C
1832 22-11-2020 08:35:00 6.9 C 85 % 4.56 C
1833 22-11-2020 08:40:00 6.9 C 85 % 4.56 C
1834 22-11-2020 08:45:00 6.9 C 85 % 4.56 C
1835 22-11-2020 08:50:00 6.9 C 85 % 4.56 C
1836 22-11-2020 08:55:00 7 C 85 % 4.66 C
1837 22-11-2020 09:00:00 7.1 C 85 % 4.75 C
1838 22-11-2020 09:05:00 7.1 C 85 % 4.75 C
1839 22-11-2020 09:10:00 7.1 C 85 % 4.75 C
1840 22-11-2020 09:15:00 7.2 C 85 % 4.85 C
1841 22-11-2020 09:20:00 7.2 C 85 % 4.85 C
1842 22-11-2020 09:25:00 7.3 C 85 % 4.95 C
1843 22-11-2020 09:30:00 7.3 C 85 % 4.95 C
1844 22-11-2020 09:35:00 7.4 C 85 % 5.05 C
1845 22-11-2020 09:40:00 7.4 C 85 % 5.05 C
1846 22-11-2020 09:45:00 7.4 C 85 % 5.05 C
1847 22-11-2020 09:50:00 7.4 C 85 % 5.05 C
1848 22-11-2020 09:55:00 7.4 C 85 % 5.05 C
1849 22-11-2020 10:00:00 7.4 C 85 % 5.05 C
1850 22-11-2020 10:05:00 7.5 C 85 % 5.15 C
Sensor: Nr:Datum:Temp:Feuchte:Taupunkt:
Aussen-T/F 1851 22-11-2020 10:10:00 7.6 C 85 % 5.24 C
1852 22-11-2020 10:15:00 7.6 C 85 % 5.24 C
1853 22-11-2020 10:20:00 7.6 C 85 % 5.24 C
1854 22-11-2020 10:25:00 7.6 C 84 % 5.07 C
1855 22-11-2020 10:30:00 7.6 C 84 % 5.07 C
1856 22-11-2020 10:35:00 7.6 C 84 % 5.07 C
1857 22-11-2020 10:40:00 7.6 C 84 % 5.07 C
1858 22-11-2020 10:45:00 7.7 C 84 % 5.17 C
1859 22-11-2020 10:50:00 7.8 C 84 % 5.27 C
1860 22-11-2020 10:55:00 7.9 C 84 % 5.37 C
1861 22-11-2020 11:00:00 7.9 C 84 % 5.37 C
1862 22-11-2020 11:05:00 8 C 84 % 5.47 C
1863 22-11-2020 11:10:00 8.1 C 84 % 5.56 C
1864 22-11-2020 11:15:00 8.1 C 84 % 5.56 C
1865 22-11-2020 11:20:00 8.1 C 84 % 5.56 C
1866 22-11-2020 11:25:00 8 C 84 % 5.47 C
1867 22-11-2020 11:30:00 8.1 C 84 % 5.56 C
1868 22-11-2020 11:35:00 8.1 C 84 % 5.56 C
1869 22-11-2020 11:40:00 8.1 C 84 % 5.56 C
1870 22-11-2020 11:45:00 8.2 C 84 % 5.66 C
1871 22-11-2020 11:50:00 8.2 C 84 % 5.66 C
1872 22-11-2020 11:55:00 8.3 C 83 % 5.59 C
1873 22-11-2020 12:00:00 8.3 C 83 % 5.59 C
1874 22-11-2020 12:05:00 8.3 C 84 % 5.76 C
1875 22-11-2020 12:10:00 8.3 C 83 % 5.59 C
Sensor: Nr:Datum:Temp:Feuchte:Taupunkt:
Aussen-T/F 1876 22-11-2020 12:15:00 8.3 C 83 % 5.59 C
1877 22-11-2020 12:20:00 8.3 C 84 % 5.76 C
1878 22-11-2020 12:25:00 8.4 C 84 % 5.86 C
1879 22-11-2020 12:30:00 8.5 C 83 % 5.78 C
1880 22-11-2020 12:35:00 8.5 C 83 % 5.78 C
1881 22-11-2020 12:40:00 8.5 C 84 % 5.96 C
1882 22-11-2020 12:45:00 8.6 C 83 % 5.88 C
1883 22-11-2020 12:50:00 8.7 C 83 % 5.98 C
1884 22-11-2020 12:55:00 8.7 C 83 % 5.98 C
1885 22-11-2020 13:00:00 8.7 C 83 % 5.98 C
1886 22-11-2020 13:05:00 8.7 C 83 % 5.98 C
1887 22-11-2020 13:10:00 8.7 C 83 % 5.98 C
1888 22-11-2020 13:15:00 8.8 C 83 % 6.08 C
1889 22-11-2020 13:20:00 8.8 C 83 % 6.08 C
1890 22-11-2020 13:25:00 8.8 C 83 % 6.08 C
1891 22-11-2020 13:30:00 8.8 C 83 % 6.08 C
1892 22-11-2020 13:35:00 8.8 C 83 % 6.08 C
1893 22-11-2020 13:40:00 8.8 C 83 % 6.08 C
1894 22-11-2020 13:45:00 8.8 C 83 % 6.08 C
1895 22-11-2020 13:50:00 8.8 C 83 % 6.08 C
1896 22-11-2020 13:55:00 8.9 C 83 % 6.17 C
1897 22-11-2020 14:00:00 8.9 C 83 % 6.17 C
1898 22-11-2020 14:05:00 8.9 C 83 % 6.17 C
1899 22-11-2020 14:10:00 8.9 C 83 % 6.17 C
1900 22-11-2020 14:15:00 8.9 C 83 % 6.17 C
Sensor: Nr:Datum:Temp:Feuchte:Taupunkt:
Aussen-T/F 1901 22-11-2020 14:20:00 8.9 C 83 % 6.17 C
1902 22-11-2020 14:25:00 8.9 C 83 % 6.17 C
1903 22-11-2020 14:30:00 8.9 C 83 % 6.17 C
1904 22-11-2020 14:35:00 9 C 83 % 6.27 C
1905 22-11-2020 14:40:00 9.1 C 83 % 6.37 C
1906 22-11-2020 14:45:00 9 C 83 % 6.27 C
1907 22-11-2020 14:50:00 9 C 83 % 6.27 C
1908 22-11-2020 14:55:00 9 C 83 % 6.27 C
1909 22-11-2020 15:00:00 9 C 83 % 6.27 C
1910 22-11-2020 15:05:00 9 C 83 % 6.27 C
1911 22-11-2020 15:10:00 9 C 83 % 6.27 C
1912 22-11-2020 15:15:00 9 C 83 % 6.27 C
1913 22-11-2020 15:20:00 9 C 83 % 6.27 C
1914 22-11-2020 15:25:00 9 C 83 % 6.27 C
1915 22-11-2020 15:30:00 9 C 83 % 6.27 C
1916 22-11-2020 15:35:00 9 C 83 % 6.27 C
1917 22-11-2020 15:40:00 9 C 83 % 6.27 C
1918 22-11-2020 15:45:00 8.9 C 83 % 6.17 C
1919 22-11-2020 15:50:00 8.9 C 84 % 6.35 C
1920 22-11-2020 15:55:00 8.9 C 84 % 6.35 C
1921 22-11-2020 16:00:00 8.9 C 84 % 6.35 C
1922 22-11-2020 16:05:00 8.9 C 84 % 6.35 C
1923 22-11-2020 16:10:00 8.9 C 84 % 6.35 C
1924 22-11-2020 16:15:00 8.9 C 84 % 6.35 C
1925 22-11-2020 16:20:00 8.9 C 85 % 6.52 C
Sensor: Nr:Datum:Temp:Feuchte:Taupunkt:
Aussen-T/F 1926 22-11-2020 16:25:00 8.9 C 84 % 6.35 C
1927 22-11-2020 16:30:00 8.9 C 84 % 6.35 C
1928 22-11-2020 16:35:00 8.9 C 85 % 6.52 C
1929 22-11-2020 16:40:00 8.9 C 84 % 6.35 C
1930 22-11-2020 16:45:00 8.8 C 85 % 6.42 C
1931 22-11-2020 16:50:00 8.8 C 84 % 6.25 C
1932 22-11-2020 16:55:00 8.8 C 85 % 6.42 C
1933 22-11-2020 17:00:00 8.8 C 85 % 6.42 C
1934 22-11-2020 17:05:00 8.8 C 85 % 6.42 C
1935 22-11-2020 17:10:00 8.8 C 85 % 6.42 C
1936 22-11-2020 17:15:00 8.8 C 85 % 6.42 C
1937 22-11-2020 17:20:00 8.7 C 85 % 6.32 C
1938 22-11-2020 17:25:00 8.7 C 85 % 6.32 C
1939 22-11-2020 17:30:00 8.7 C 85 % 6.32 C
1940 22-11-2020 17:35:00 8.7 C 85 % 6.32 C
1941 22-11-2020 17:40:00 8.7 C 85 % 6.32 C
1942 22-11-2020 17:45:00 8.7 C 85 % 6.32 C
1943 22-11-2020 17:50:00 8.7 C 85 % 6.32 C
1944 22-11-2020 17:55:00 8.7 C 85 % 6.32 C
1945 22-11-2020 18:00:00 8.6 C 85 % 6.23 C
1946 22-11-2020 18:05:00 8.6 C 85 % 6.23 C
1947 22-11-2020 18:10:00 8.6 C 85 % 6.23 C
1948 22-11-2020 18:15:00 8.6 C 85 % 6.23 C
1949 22-11-2020 18:20:00 8.5 C 85 % 6.13 C
1950 22-11-2020 18:25:00 8.5 C 85 % 6.13 C
Sensor: Nr:Datum:Temp:Feuchte:Taupunkt:
Aussen-T/F 1951 22-11-2020 18:30:00 8.5 C 85 % 6.13 C
1952 22-11-2020 18:35:00 8.5 C 85 % 6.13 C
1953 22-11-2020 18:40:00 8.5 C 85 % 6.13 C
1954 22-11-2020 18:45:00 8.5 C 85 % 6.13 C
1955 22-11-2020 18:50:00 8.5 C 85 % 6.13 C
1956 22-11-2020 18:55:00 8.5 C 85 % 6.13 C
1957 22-11-2020 19:00:00 8.5 C 85 % 6.13 C
1958 22-11-2020 19:05:00 8.5 C 85 % 6.13 C
1959 22-11-2020 19:10:00 8.4 C 85 % 6.03 C
1960 22-11-2020 19:15:00 8.4 C 85 % 6.03 C
1961 22-11-2020 19:20:00 8.4 C 85 % 6.03 C
1962 22-11-2020 19:25:00 8.4 C 86 % 6.2 C
1963 22-11-2020 19:30:00 8.4 C 85 % 6.03 C
1964 22-11-2020 19:35:00 8.4 C 85 % 6.03 C
1965 22-11-2020 19:40:00 8.4 C 86 % 6.2 C
1966 22-11-2020 19:45:00 8.4 C 86 % 6.2 C
1967 22-11-2020 19:50:00 8.4 C 85 % 6.03 C
1968 22-11-2020 19:55:00 8.4 C 86 % 6.2 C
1969 22-11-2020 20:00:00 8.3 C 86 % 6.1 C
1970 22-11-2020 20:05:00 8.3 C 85 % 5.93 C
1971 22-11-2020 20:10:00 8.3 C 85 % 5.93 C
1972 22-11-2020 20:15:00 8.4 C 85 % 6.03 C
1973 22-11-2020 20:20:00 8.4 C 85 % 6.03 C
1974 22-11-2020 20:25:00 8.4 C 86 % 6.2 C
1975 22-11-2020 20:30:00 8.4 C 86 % 6.2 C
Sensor: Nr:Datum:Temp:Feuchte:Taupunkt:
Aussen-T/F 1976 22-11-2020 20:35:00 8.4 C 86 % 6.2 C
1977 22-11-2020 20:40:00 8.3 C 86 % 6.1 C
1978 22-11-2020 20:45:00 8.3 C 86 % 6.1 C
1979 22-11-2020 20:50:00 8.3 C 86 % 6.1 C
1980 22-11-2020 20:55:00 8.3 C 86 % 6.1 C
1981 22-11-2020 21:00:00 8.3 C 86 % 6.1 C
1982 22-11-2020 21:05:00 8.3 C 86 % 6.1 C
1983 22-11-2020 21:10:00 8.3 C 86 % 6.1 C
1984 22-11-2020 21:15:00 8.3 C 87 % 6.27 C
1985 22-11-2020 21:20:00 8.3 C 87 % 6.27 C
1986 22-11-2020 21:25:00 8.3 C 87 % 6.27 C
1987 22-11-2020 21:30:00 8.3 C 87 % 6.27 C
1988 22-11-2020 21:35:00 8.3 C 87 % 6.27 C
1989 22-11-2020 21:40:00 8.3 C 87 % 6.27 C
1990 22-11-2020 21:45:00 8.3 C 87 % 6.27 C
1991 22-11-2020 21:50:00 8.3 C 87 % 6.27 C
1992 22-11-2020 21:55:00 8.3 C 87 % 6.27 C
1993 22-11-2020 22:00:00 8.3 C 87 % 6.27 C
1994 22-11-2020 22:05:00 8.3 C 87 % 6.27 C
1995 22-11-2020 22:10:00 8.3 C 87 % 6.27 C
1996 22-11-2020 22:15:00 8.3 C 87 % 6.27 C
1997 22-11-2020 22:20:00 8.3 C 87 % 6.27 C
1998 22-11-2020 22:25:00 8.3 C 87 % 6.27 C
1999 22-11-2020 22:30:00 8.3 C 87 % 6.27 C
2000 22-11-2020 22:35:00 8.3 C 87 % 6.27 C
Sensor: Nr:Datum:Temp:Feuchte:Taupunkt:
Aussen-T/F 2001 22-11-2020 22:40:00 8.3 C 87 % 6.27 C
2002 22-11-2020 22:45:00 8.3 C 87 % 6.27 C
2003 22-11-2020 22:50:00 8.3 C 87 % 6.27 C
2004 22-11-2020 22:55:00 8.3 C 88 % 6.43 C
2005 22-11-2020 23:00:00 8.3 C 88 % 6.43 C
2006 22-11-2020 23:05:00 8.3 C 88 % 6.43 C
2007 22-11-2020 23:10:00 8.3 C 88 % 6.43 C
2008 22-11-2020 23:15:00 8.3 C 88 % 6.43 C
2009 22-11-2020 23:20:00 8.3 C 88 % 6.43 C
2010 22-11-2020 23:25:00 8.3 C 88 % 6.43 C
2011 22-11-2020 23:30:00 8.3 C 88 % 6.43 C
2012 22-11-2020 23:35:00 8.3 C 88 % 6.43 C
2013 22-11-2020 23:40:00 8.3 C 88 % 6.43 C
2014 22-11-2020 23:45:00 8.3 C 88 % 6.43 C
2015 22-11-2020 23:50:00 8.3 C 88 % 6.43 C
2016 22-11-2020 23:55:00 8.3 C 88 % 6.43 C

Legende:
   Min
   Max


Maximal/Minimal-Werte vom 16.11.2020 - 22.11.2020

Sensor Min Max Avg
Temp
(Aussen-T/F)
0.1 °C
21-11-2020  04:00:00
13.2 °C
17-11-2020  14:15:00
8.04 °C
Feuchte
(Aussen-T/F)
68 %
19-11-2020  15:05:00
97 %
19-11-2020  00:30:00
87.98 %
Taupunkt
(Aussen-T/F)
-0.5 C
20-11-2020  22:35:00
10.37 C
18-11-2020  15:15:00
6.13 C

Die Daten stammen von einer Davis Vantage Pro 2 Wetter-Station und werden unter Linux mit der Software wview2wettercgi und aufbereitet. Alle Angaben erfolgen ohne Gewähr für ihre Vollständigkeit oder Richtigkeit.
Kontakt: Rainer Krienke krienke@uni-koblenz.de . Meine Webseiten an der Uni Koblenz oder privat.
Version: $Revision: 0.78 $